EW4595 Weather Reports


Display with metric or nautical units.
time (UTC)temp
F
wind
direction
speed
MPH
gust
MPH
rain 1hr
in
rain 24hr
in
rain mn
in
humidity
%
barometer
mb
20260831010003 65 90 3.0 11.0 0.00 0.00 0.00 66 1013.8
20260831005903 65 78 5.0 11.0 0.00 0.00 0.00 66 1013.6
20260831005803 65 79 5.0 11.0 0.00 0.00 0.00 66 1013.9
20260831005703 65 71 5.0 11.0 0.00 0.00 0.00 66 1014.0
20260831005603 65 79 5.0 11.0 0.00 0.00 0.00 66 1013.6
20260831005504 65 86 5.0 11.0 0.00 0.00 0.00 66 1013.9
20260831005403 65 81 6.0 13.0 0.00 0.00 0.00 66 1013.8
20260831005306 65 86 4.0 13.0 0.00 0.00 0.00 66 1014.0
20260831005203 65 118 4.0 13.0 0.00 0.00 0.00 66 1014.1
20260831005103 65 76 4.0 13.0 0.00 0.00 0.00 66 1013.8
20260831005003 65 45 4.0 13.0 0.00 0.00 0.00 66 1014.0
20260831004903 65 53 5.0 13.0 0.00 0.00 0.00 66 1014.1
20260831004803 65 85 5.0 11.0 0.00 0.00 0.00 66 1013.9
20260831004703 65 72 4.0 9.0 0.00 0.00 0.00 66 1013.9
20260831004603 65 62 4.0 13.0 0.00 0.00 0.00 66 1014.0
20260831004503 65 72 4.0 18.0 0.00 0.00 0.00 66 1013.9
20260831004403 65 79 4.0 18.0 0.00 0.00 0.00 66 1014.2
20260831004303 66 80 4.0 18.0 0.00 0.00 0.00 65 1014.0
20260831004204 66 101 4.0 18.0 0.00 0.00 0.00 65 1013.9
20260831004103 66 111 6.0 18.0 0.00 0.00 0.00 64 1013.7
20260831004016 66 122 8.0 18.0 0.00 0.00 0.00 64 1014.0
20260831004003 66 127 8.0 18.0 0.00 0.00 0.00 64 1014.0
20260831003917 66 136 5.0 13.0 0.00 0.00 0.00 64 1013.9
20260831003903 66 134 7.0 13.0 0.00 0.00 0.00 63 1014.0
20260831003603 66 121 5.0 13.0 0.00 0.00 0.00 63 1014.3
20260831003503 66 124 6.0 13.0 0.00 0.00 0.00 63 1013.8
20260831003403 66 127 5.0 13.0 0.00 0.00 0.00 63 1013.8
20260831003303 66 145 8.0 13.0 0.00 0.00 0.00 63 1013.8
20260831003203 66 148 4.0 13.0 0.00 0.00 0.00 63 1014.0
20260831003118 67 147 4.0 13.0 0.00 0.00 0.00 63 1014.0
20260831003103 67 136 4.0 11.0 0.00 0.00 0.00 63 1014.0
20260831003016 67 110 3.0 9.0 0.00 0.00 0.00 63 1014.0
20260831003003 67 104 3.0 9.0 0.00 0.00 0.00 63 1014.0
20260831002703 67 75 4.0 11.0 0.00 0.00 0.00 63 1013.9
20260831002603 67 58 5.0 11.0 0.00 0.00 0.00 63 1013.9
20260831002517 67 61 3.0 11.0 0.00 0.00 0.00 62 1014.2
20260831002503 67 62 3.0 11.0 0.00 0.00 0.00 62 1014.2
20260831002403 67 61 4.0 11.0 0.00 0.00 0.00 62 1014.1
20260831002203 67 78 4.0 13.0 0.00 0.00 0.00 62 1013.9
20260831002103 67 84 4.0 13.0 0.00 0.00 0.00 62 1014.1
20260831002003 67 87 4.0 13.0 0.00 0.00 0.00 62 1013.9
20260831001903 67 101 6.0 13.0 0.00 0.00 0.00 62 1014.1
20260831001817 67 110 5.0 11.0 0.00 0.00 0.00 63 1013.7
20260831001803 67 102 5.0 11.0 0.00 0.00 0.00 63 1013.7
20260831001703 67 91 4.0 11.0 0.00 0.00 0.00 64 1014.0
20260831001517 67 107 2.0 11.0 0.00 0.00 0.00 64 1013.9
20260831001403 67 83 4.0 11.0 0.00 0.00 0.00 64 1014.0
20260831001203 67 105 4.0 14.0 0.00 0.00 0.00 64 1014.0
20260831001103 66 116 6.0 14.0 0.00 0.00 0.00 65 1014.1
20260831001003 66 133 6.0 14.0 0.00 0.00 0.00 65 1013.9
20260831000903 66 164 4.0 14.0 0.00 0.00 0.00 65 1013.8
20260831000803 66 142 7.0 14.0 0.00 0.00 0.00 65 1014.1
20260831000703 66 109 5.0 8.0 0.00 0.00 0.00 66 1013.9
20260831000603 66 98 3.0 7.0 0.00 0.00 0.00 66 1013.9
20260831000517 65 94 4.0 7.0 0.00 0.00 0.00 66 1014.0
20260831000503 65 93 4.0 7.0 0.00 0.00 0.00 66 1014.0
20260831000403 65 74 4.0 7.0 0.00 0.00 0.00 67 1014.1
20260831000218 65 70 4.0 8.0 0.00 0.00 0.00 67 1013.6
20260831000204 65 73 4.0 8.0 0.00 0.00 0.00 67 1013.6
20260831000103 65 71 2.0 8.0 0.00 0.00 0.00 68 1013.8
20260830235903 65 67 3.0 8.0 0.00 0.00 0.00 68 1013.7
20260830235803 65 73 5.0 9.0 0.00 0.00 0.00 68 1013.9
20260830235703 65 69 3.0 9.0 0.00 0.00 0.00 68 1013.7
20260830235616 65 72 2.0 11.0 0.00 0.00 0.00 68 1013.6
20260830235603 65 75 2.0 11.0 0.00 0.00 0.00 68 1013.6
20260830235503 65 82 2.0 11.0 0.00 0.00 0.00 68 1013.8
20260830235305 65 91 5.0 11.0 0.00 0.00 0.00 68 1013.7
20260830235203 65 90 4.0 11.0 0.00 0.00 0.00 68 1013.6
20260830235117 65 90 4.0 11.0 0.00 0.00 0.00 68 1013.5
20260830235103 65 89 4.0 8.0 0.00 0.00 0.00 68 1013.6
20260830235003 65 90 3.0 8.0 0.00 0.00 0.00 68 1013.8
20260830234803 65 81 4.0 8.0 0.00 0.00 0.00 69 1013.6
20260830234718 65 84 4.0 8.0 0.00 0.00 0.00 69 1013.8
20260830234703 65 84 4.0 8.0 0.00 0.00 0.00 69 1013.6
20260830234603 65 87 3.0 7.0 0.00 0.00 0.00 69 1013.9
20260830234403 65 98 2.0 6.0 0.00 0.00 0.00 69 1013.8
20260830234303 65 96 2.0 6.0 0.00 0.00 0.00 68 1013.9
20260830234203 65 92 3.0 6.0 0.00 0.00 0.00 68 1013.8
20260830234103 65 93 3.0 4.0 0.00 0.00 0.00 68 1014.0
20260830234003 65 92 2.0 4.0 0.00 0.00 0.00 68 1014.1
20260830233903 65 95 1.0 4.0 0.00 0.00 0.00 68 1014.2
20260830233803 65 92 2.0 4.0 0.00 0.00 0.00 68 1013.9
20260830233705 65 90 1.0 4.0 0.00 0.00 0.00 67 1014.4
20260830233616 65 83 2.0 4.0 0.00 0.00 0.00 67 1014.2
20260830233603 65 75 2.0 4.0 0.00 0.00 0.00 67 1014.2
20260830233503 65 93 1.0 6.0 0.00 0.00 0.00 67 1014.3
20260830233418 65 95 0.0 7.0 0.00 0.00 0.00 66 1014.3
20260830233303 65 96 2.0 7.0 0.00 0.00 0.00 66 1014.1
20260830233103 65 98 2.0 7.0 0.00 0.00 0.00 65 1014.1
20260830233003 65 88 3.0 7.0 0.00 0.00 0.00 65 1014.0
20260830232917 66 86 4.0 7.0 0.00 0.00 0.00 65 1014.0
20260830232903 66 87 4.0 7.0 0.00 0.00 0.00 65 1014.0
20260830232803 66 87 3.0 6.0 0.00 0.00 0.00 64 1014.2
20260830232603 66 75 3.0 6.0 0.00 0.00 0.00 63 1014.1
20260830232503 66 74 3.0 4.0 0.00 0.00 0.00 63 1014.3
20260830232403 66 76 2.0 4.0 0.00 0.00 0.00 63 1014.2
20260830232305 66 74 2.0 4.0 0.00 0.00 0.00 63 1014.3
20260830232203 66 79 2.0 4.0 0.00 0.00 0.00 63 1014.3
20260830232103 66 80 2.0 4.0 0.00 0.00 0.00 63 1014.2
20260830232008 66 77 2.0 4.0 0.00 0.00 0.00 63 1014.4
20260830231903 66 71 2.0 4.0 0.00 0.00 0.00 63 1014.4
20260830231803 66 66 2.0 2.0 0.00 0.00 0.00 63 1014.4
20260830231703 66 71 2.0 2.0 0.00 0.00 0.00 64 1014.2
20260830231618 66 74 1.0 2.0 0.00 0.00 0.00 64 1014.1
20260830231603 66 76 1.0 2.0 0.00 0.00 0.00 64 1014.1
20260830231517 66 83 1.0 2.0 0.00 0.00 0.00 64 1014.3
20260830231503 66 86 0.0 2.0 0.00 0.00 0.00 64 1014.3
20260830231203 66 90 1.0 2.0 0.00 0.00 0.00 63 1014.2
20260830231117 66 90 1.0 2.0 0.00 0.00 0.00 64 1014.3
20260830231103 66 90 0.0 2.0 0.00 0.00 0.00 64 1014.1
20260830231005 66 90 0.0 2.0 0.00 0.00 0.00 64 1014.2
20260830230803 66 88 1.0 4.0 0.00 0.00 0.00 64 1014.1
20260830230703 66 88 1.0 4.0 0.00 0.00 0.00 64 1014.2
20260830230603 66 90 1.0 4.0 0.00 0.00 0.00 64 1014.2
20260830230503 66 91 1.0 4.0 0.00 0.00 0.00 64 1014.2
20260830230403 66 91 2.0 4.0 0.00 0.00 0.00 64 1014.0
20260830230318 66 94 1.0 2.0 0.00 0.00 0.00 64 1014.1
20260830230203 66 93 1.0 2.0 0.00 0.00 0.00 64 1014.1
20260830230004 66 73 0.0 2.0 0.00 0.00 0.00 64 1014.3
20260830225903 66 76 0.0 2.0 0.00 0.00 0.00 64 1014.0
20260830225819 66 82 1.0 4.0 0.00 0.00 0.00 64 1014.1
20260830225803 66 85 1.0 4.0 0.00 0.00 0.00 64 1014.1
20260830225703 66 90 1.0 4.0 0.00 0.00 0.00 64 1014.1
20260830225618 66 92 0.0 4.0 0.00 0.00 0.00 64 1014.0
20260830225503 66 95 1.0 6.0 0.00 0.00 0.00 64 1013.8
20260830225305 66 96 2.0 6.0 0.00 0.00 0.00 64 1013.8
20260830225203 66 95 1.0 6.0 0.00 0.00 0.00 64 1013.7
20260830225103 66 90 4.0 6.0 0.00 0.00 0.00 64 1013.6
20260830225003 66 82 2.0 4.0 0.00 0.00 0.00 64 1013.6
20260830224903 66 78 2.0 4.0 0.00 0.00 0.00 64 1013.8
20260830224817 66 76 2.0 4.0 0.00 0.00 0.00 64 1013.7
20260830224803 66 74 2.0 4.0 0.00 0.00 0.00 64 1013.7
20260830224703 66 75 1.0 4.0 0.00 0.00 0.00 64 1013.6
20260830224503 66 84 2.0 6.0 0.00 0.00 0.00 64 1013.6
20260830224417 66 84 1.0 6.0 0.00 0.00 0.00 64 1013.5
20260830224403 66 83 1.0 6.0 0.00 0.00 0.00 64 1013.5
20260830224304 66 86 2.0 8.0 0.00 0.00 0.00 64 1013.6
20260830224103 66 81 3.0 8.0 0.00 0.00 0.00 63 1013.5
20260830224003 67 80 2.0 8.0 0.00 0.00 0.00 63 1013.6
20260830223903 67 84 3.0 8.0 0.00 0.00 0.00 62 1013.7
20260830223803 67 76 4.0 8.0 0.00 0.00 0.00 62 1013.5
20260830223703 67 75 2.0 6.0 0.00 0.00 0.00 62 1013.6
20260830223603 67 76 2.0 6.0 0.00 0.00 0.00 62 1013.6
20260830223504 67 74 2.0 6.0 0.00 0.00 0.00 62 1013.5
20260830223405 67 68 3.0 7.0 0.00 0.00 0.00 62 1013.5
20260830223307 67 68 3.0 8.0 0.00 0.00 0.00 62 1013.5
20260830223203 67 66 3.0 8.0 0.00 0.00 0.00 62 1013.6
20260830223117 67 65 4.0 8.0 0.00 0.00 0.00 62 1013.4
20260830223103 67 63 2.0 8.0 0.00 0.00 0.00 62 1013.3
20260830223003 67 60 2.0 8.0 0.00 0.00 0.00 61 1013.5
20260830222803 67 61 3.0 8.0 0.00 0.00 0.00 61 1013.6
20260830222703 67 63 3.0 6.0 0.00 0.00 0.00 61 1013.4
20260830222603 67 66 2.0 6.0 0.00 0.00 0.00 61 1013.1
20260830222503 67 70 3.0 6.0 0.00 0.00 0.00 60 1013.3
20260830222403 67 64 2.0 8.0 0.00 0.00 0.00 61 1013.4
20260830222306 67 58 2.0 8.0 0.00 0.00 0.00 60 1013.3
20260830222203 67 61 3.0 8.0 0.00 0.00 0.00 61 1013.2
20260830222103 67 61 3.0 9.0 0.00 0.00 0.00 61 1013.3
20260830222003 67 65 3.0 9.0 0.00 0.00 0.00 61 1013.4
20260830221903 67 67 4.0 9.0 0.00 0.00 0.00 61 1013.3
20260830221803 67 77 4.0 9.0 0.00 0.00 0.00 61 1013.2
20260830221703 67 65 3.0 9.0 0.00 0.00 0.00 61 1013.4
20260830221603 67 68 5.0 9.0 0.00 0.00 0.00 62 1013.3
20260830221503 68 66 2.0 8.0 0.00 0.00 0.00 62 1013.1
20260830221403 68 76 3.0 8.0 0.00 0.00 0.00 62 1013.2
20260830221303 68 81 3.0 8.0 0.00 0.00 0.00 62 1013.1
20260830221203 68 82 2.0 8.0 0.00 0.00 0.00 62 1012.9
20260830221103 68 89 2.0 8.0 0.00 0.00 0.00 62 1013.0
20260830221003 68 90 2.0 8.0 0.00 0.00 0.00 62 1013.0
20260830220903 68 82 3.0 8.0 0.00 0.00 0.00 63 1013.0
20260830220803 68 74 2.0 8.0 0.00 0.00 0.00 62 1013.1
20260830220703 68 74 2.0 7.0 0.00 0.00 0.00 63 1012.9
20260830220603 68 66 2.0 7.0 0.00 0.00 0.00 62 1013.1
20260830220505 68 58 2.0 7.0 0.00 0.00 0.00 62 1013.2
20260830220403 68 57 3.0 6.0 0.00 0.00 0.00 62 1013.0
20260830220218 68 64 2.0 7.0 0.00 0.00 0.00 62 1012.9
20260830215903 69 58 2.0 8.0 0.00 0.00 0.00 61 1012.9
20260830215803 69 49 2.0 8.0 0.00 0.00 0.00 61 1013.0
20260830215705 69 43 3.0 8.0 0.00 0.00 0.00 61 1013.0
20260830215603 69 45 2.0 8.0 0.00 0.00 0.00 61 1013.0
20260830215503 69 39 3.0 6.0 0.00 0.00 0.00 60 1012.9
20260830215405 69 50 2.0 6.0 0.00 0.00 0.00 60 1013.0
20260830215305 69 61 3.0 6.0 0.00 0.00 0.00 60 1012.8
20260830215203 69 83 2.0 4.0 0.00 0.00 0.00 60 1012.6
20260830215117 69 91 2.0 4.0 0.00 0.00 0.00 60 1012.9
20260830215103 69 93 1.0 4.0 0.00 0.00 0.00 60 1012.9
20260830215017 69 99 2.0 4.0 0.00 0.00 0.00 60 1013.1
20260830215003 69 101 2.0 4.0 0.00 0.00 0.00 60 1013.1
20260830214717 69 79 3.0 4.0 0.00 0.00 0.00 60 1012.7
20260830214705 69 79 2.0 4.0 0.00 0.00 0.00 60 1012.8
20260830214603 69 74 2.0 4.0 0.00 0.00 0.00 60 1012.8
20260830214403 69 67 1.0 7.0 0.00 0.00 0.00 59 1012.9
20260830214303 69 64 2.0 7.0 0.00 0.00 0.00 59 1013.0
20260830214204 69 66 2.0 7.0 0.00 0.00 0.00 59 1012.9
20260830214105 70 65 2.0 7.0 0.00 0.00 0.00 59 1013.0
20260830214003 70 70 3.0 7.0 0.00 0.00 0.00 58 1013.0
20260830213903 70 60 2.0 7.0 0.00 0.00 0.00 58 1013.0
20260830213805 70 62 3.0 7.0 0.00 0.00 0.00 58 1013.1
20260830213719 70 60 3.0 7.0 0.00 0.00 0.00 58 1013.1
20260830213703 70 59 3.0 7.0 0.00 0.00 0.00 58 1013.1
20260830213603 70 49 4.0 7.0 0.00 0.00 0.00 58 1012.9
20260830213403 70 47 2.0 6.0 0.00 0.00 0.00 57 1012.7
20260830213303 70 54 0.0 7.0 0.00 0.00 0.00 57 1013.1
20260830213203 70 56 0.0 7.0 0.00 0.00 0.00 57 1013.0
20260830213103 71 68 2.0 7.0 0.00 0.00 0.00 57 1012.8
20260830213017 71 78 1.0 7.0 0.00 0.00 0.00 57 1012.9
20260830213003 71 83 1.0 7.0 0.00 0.00 0.00 57 1012.9
20260830212903 71 90 2.0 7.0 0.00 0.00 0.00 57 1012.9
20260830212816 71 90 4.0 7.0 0.00 0.00 0.00 57 1013.0
20260830212703 71 91 3.0 7.0 0.00 0.00 0.00 56 1013.2
20260830212503 71 62 3.0 7.0 0.00 0.00 0.00 56 1012.8
20260830212403 71 44 3.0 7.0 0.00 0.00 0.00 56 1013.0
20260830212306 72 45 2.0 6.0 0.00 0.00 0.00 56 1013.0
20260830212203 72 46 2.0 6.0 0.00 0.00 0.00 56 1013.0
20260830212103 72 39 1.0 6.0 0.00 0.00 0.00 57 1013.0
20260830212003 72 40 2.0 6.0 0.00 0.00 0.00 56 1012.9
20260830211903 72 47 1.0 6.0 0.00 0.00 0.00 56 1013.0
20260830211803 72 51 2.0 6.0 0.00 0.00 0.00 56 1012.8
20260830211703 72 51 1.0 6.0 0.00 0.00 0.00 56 1013.1
20260830211603 72 50 1.0 7.0 0.00 0.00 0.00 56 1013.0
20260830211303 72 55 2.0 7.0 0.00 0.00 0.00 55 1013.2
20260830211203 72 57 3.0 8.0 0.00 0.00 0.00 55 1012.8
20260830211103 72 65 4.0 9.0 0.00 0.00 0.00 55 1012.9
20260830211003 72 61 4.0 9.0 0.00 0.00 0.00 55 1013.1
20260830210903 72 58 3.0 9.0 0.00 0.00 0.00 54 1012.8
20260830210818 72 56 4.0 9.0 0.00 0.00 0.00 54 1013.0
20260830210803 72 54 4.0 9.0 0.00 0.00 0.00 54 1013.0
20260830210703 72 50 4.0 9.0 0.00 0.00 0.00 53 1012.7
20260830210504 73 31 3.0 7.0 0.00 0.00 0.00 53 1013.1
20260830210405 73 42 2.0 7.0 0.00 0.00 0.00 53 1013.0
20260830210304 73 66 3.0 7.0 0.00 0.00 0.00 53 1013.1
20260830210203 73 88 3.0 7.0 0.00 0.00 0.00 52 1013.3
20260830210103 73 105 3.0 7.0 0.00 0.00 0.00 52 1013.1
20260830210003 73 124 4.0 8.0 0.00 0.00 0.00 53 1013.2
20260830205903 73 117 2.0 8.0 0.00 0.00 0.00 52 1013.3
20260830205803 73 110 2.0 8.0 0.00 0.00 0.00 53 1013.1
20260830205703 73 99 4.0 8.0 0.00 0.00 0.00 53 1013.2
20260830205603 73 95 3.0 8.0 0.00 0.00 0.00 53 1013.1
20260830205503 73 81 3.0 8.0 0.00 0.00 0.00 53 1013.1
20260830205403 73 76 3.0 8.0 0.00 0.00 0.00 53 1013.1
20260830205305 73 74 5.0 8.0 0.00 0.00 0.00 53 1013.2
20260830205203 73 78 2.0 8.0 0.00 0.00 0.00 53 1013.0
20260830205103 73 76 4.0 11.0 0.00 0.00 0.00 52 1013.2
20260830205003 73 80 3.0 11.0 0.00 0.00 0.00 52 1013.1
20260830204905 73 78 4.0 11.0 0.00 0.00 0.00 52 1013.2
20260830204803 73 68 4.0 11.0 0.00 0.00 0.00 52 1013.2
20260830204717 73 57 4.0 11.0 0.00 0.00 0.00 52 1013.0
20260830204703 73 53 4.0 11.0 0.00 0.00 0.00 52 1012.9
20260830204603 73 49 4.0 11.0 0.00 0.00 0.00 52 1013.0
20260830204518 73 45 2.0 8.0 0.00 0.00 0.00 51 1013.3
20260830204403 73 37 3.0 8.0 0.00 0.00 0.00 51 1012.9
20260830204203 73 66 4.0 11.0 0.00 0.00 0.00 51 1012.7
20260830204103 73 70 3.0 11.0 0.00 0.00 0.00 51 1013.0
20260830204017 73 73 4.0 11.0 0.00 0.00 0.00 51 1013.1
20260830203703 72 86 5.0 11.0 0.00 0.00 0.00 51 1013.1
20260830203603 73 88 3.0 11.0 0.00 0.00 0.00 52 1013.1
20260830203503 72 87 4.0 11.0 0.00 0.00 0.00 52 1013.0
20260830203416 72 88 7.0 11.0 0.00 0.00 0.00 52 1012.9
20260830203403 72 86 7.0 11.0 0.00 0.00 0.00 52 1012.9
20260830203303 72 87 4.0 11.0 0.00 0.00 0.00 52 1013.2
20260830203103 73 79 4.0 11.0 0.00 0.00 0.00 51 1012.9
20260830203017 73 69 3.0 11.0 0.00 0.00 0.00 51 1013.1
20260830203003 73 70 3.0 11.0 0.00 0.00 0.00 51 1013.1
20260830202918 73 70 5.0 13.0 0.00 0.00 0.00 51 1012.9
20260830202903 73 68 5.0 13.0 0.00 0.00 0.00 51 1012.9
20260830202603 73 73 4.0 14.0 0.00 0.00 0.00 50 1012.9
20260830202503 73 69 4.0 14.0 0.00 0.00 0.00 50 1013.1
20260830202417 73 76 6.0 14.0 0.00 0.00 0.00 50 1013.1
20260830202403 73 81 6.0 14.0 0.00 0.00 0.00 50 1013.1
20260830202305 73 89 6.0 14.0 0.00 0.00 0.00 50 1013.2
20260830202103 73 84 4.0 11.0 0.00 0.00 0.00 50 1013.1
20260830202003 73 112 6.0 14.0 0.00 0.00 0.00 50 1013.1
20260830201903 73 94 6.0 14.0 0.00 0.00 0.00 50 1013.0
20260830201803 73 87 4.0 14.0 0.00 0.00 0.00 50 1012.8
20260830201703 73 80 6.0 14.0 0.00 0.00 0.00 49 1013.1
20260830201603 73 71 6.0 14.0 0.00 0.00 0.00 49 1013.1
20260830201503 73 57 8.0 13.0 0.00 0.00 0.00 49 1013.0
20260830201403 74 53 4.0 11.0 0.00 0.00 0.00 49 1013.1
20260830201303 74 55 5.0 11.0 0.00 0.00 0.00 49 1013.1
20260830201118 74 69 4.0 11.0 0.00 0.00 0.00 50 1013.2
20260830201103 74 70 4.0 11.0 0.00 0.00 0.00 50 1013.1
20260830201003 74 81 6.0 11.0 0.00 0.00 0.00 49 1013.1
20260830200803 74 96 4.0 14.0 0.00 0.00 0.00 49 1013.0
20260830200703 74 97 4.0 14.0 0.00 0.00 0.00 49 1013.2
20260830200603 73 104 7.0 14.0 0.00 0.00 0.00 49 1013.1
20260830200503 74 104 5.0 14.0 0.00 0.00 0.00 48 1013.0
20260830200403 74 98 6.0 14.0 0.00 0.00 0.00 48 1013.0
20260830200303 74 112 8.0 14.0 0.00 0.00 0.00 48 1013.1
20260830200203 74 118 8.0 14.0 0.00 0.00 0.00 48 1013.1
20260830200103 74 94 7.0 14.0 0.00 0.00 0.00 48 1013.2
20260830200003 74 99 4.0 14.0 0.00 0.00 0.00 48 1013.1
20260830195903 74 118 7.0 15.0 0.00 0.00 0.00 48 1013.0
20260830195803 74 83 4.0 15.0 0.00 0.00 0.00 48 1013.0
20260830195703 74 69 4.0 15.0 0.00 0.00 0.00 48 1012.9
20260830195603 74 84 4.0 15.0 0.00 0.00 0.00 49 1013.1
20260830195503 73 77 7.0 15.0 0.00 0.00 0.00 49 1013.0
20260830195418 73 68 8.0 15.0 0.00 0.00 0.00 49 1012.9
20260830195403 73 74 8.0 15.0 0.00 0.00 0.00 49 1012.9
20260830195313 73 88 7.0 13.0 0.00 0.00 0.00 49 1013.2
20260830195217 73 95 8.0 13.0 0.00 0.00 0.00 49 1012.9
20260830195103 73 92 5.0 13.0 0.00 0.00 0.00 49 1013.1
20260830194903 74 66 6.0 13.0 0.00 0.00 0.00 49 1013.1
20260830194803 73 62 5.0 13.0 0.00 0.00 0.00 49 1012.9
20260830194703 74 59 4.0 13.0 0.00 0.00 0.00 49 1012.9
20260830194603 74 56 5.0 13.0 0.00 0.00 0.00 49 1013.0
20260830194503 74 61 4.0 14.0 0.00 0.00 0.00 50 1012.9
20260830194403 74 72 4.0 14.0 0.00 0.00 0.00 50 1013.1
20260830194319 74 73 5.0 14.0 0.00 0.00 0.00 49 1013.2
20260830194303 74 71 6.0 14.0 0.00 0.00 0.00 49 1013.0
20260830194217 74 70 4.0 14.0 0.00 0.00 0.00 49 1012.9
20260830194203 74 68 4.0 14.0 0.00 0.00 0.00 49 1012.9
20260830193903 74 75 6.0 13.0 0.00 0.00 0.00 49 1012.8
20260830193803 73 100 7.0 13.0 0.00 0.00 0.00 49 1012.8
20260830193703 74 116 7.0 13.0 0.00 0.00 0.00 49 1012.7
20260830193603 74 125 5.0 13.0 0.00 0.00 0.00 50 1012.9
20260830193503 74 119 6.0 13.0 0.00 0.00 0.00 51 1012.9
20260830193403 74 118 4.0 13.0 0.00 0.00 0.00 50 1012.9
20260830193305 74 104 4.0 9.0 0.00 0.00 0.00 50 1012.9
20260830193203 74 75 4.0 9.0 0.00 0.00 0.00 50 1013.1
20260830193103 74 34 4.0 9.0 0.00 0.00 0.00 50 1013.0
20260830193003 74 11 4.0 11.0 0.00 0.00 0.00 50 1012.8
20260830192903 75 23 3.0 11.0 0.00 0.00 0.00 49 1012.9
20260830192803 75 50 2.0 11.0 0.00 0.00 0.00 50 1012.8
20260830192703 74 64 2.0 11.0 0.00 0.00 0.00 51 1012.9
20260830192603 74 75 4.0 11.0 0.00 0.00 0.00 51 1013.1
20260830192503 74 89 6.0 11.0 0.00 0.00 0.00 50 1013.1
20260830192403 74 101 7.0 11.0 0.00 0.00 0.00 49 1013.0
20260830192316 74 93 7.0 11.0 0.00 0.00 0.00 50 1013.0
20260830192305 74 95 5.0 11.0 0.00 0.00 0.00 51 1013.0
20260830192203 74 121 2.0 11.0 0.00 0.00 0.00 51 1013.0
20260830192003 74 116 4.0 13.0 0.00 0.00 0.00 51 1012.9
20260830191903 74 74 6.0 13.0 0.00 0.00 0.00 51 1013.0
20260830191803 74 37 5.0 13.0 0.00 0.00 0.00 51 1013.0
20260830191703 74 33 7.0 13.0 0.00 0.00 0.00 51 1013.0
20260830191603 74 37 6.0 13.0 0.00 0.00 0.00 50 1013.2
20260830191503 74 51 4.0 13.0 0.00 0.00 0.00 50 1013.1
20260830191403 74 57 7.0 13.0 0.00 0.00 0.00 51 1013.1
20260830191317 74 72 6.0 13.0 0.00 0.00 0.00 50 1013.0
20260830191303 74 79 6.0 13.0 0.00 0.00 0.00 50 1013.0
20260830191203 74 76 4.0 13.0 0.00 0.00 0.00 50 1013.0
20260830191003 74 46 8.0 13.0 0.00 0.00 0.00 51 1013.0
20260830190903 74 36 5.0 13.0 0.00 0.00 0.00 52 1013.2
20260830190803 74 40 5.0 13.0 0.00 0.00 0.00 53 1013.1
20260830190703 73 359 8.0 13.0 0.00 0.00 0.00 53 1013.1
20260830190604 74 281 6.0 13.0 0.00 0.00 0.00 52 1013.1
20260830190504 74 262 8.0 13.0 0.00 0.00 0.00 51 1013.0
20260830190403 74 241 6.0 11.0 0.00 0.00 0.00 51 1012.9
20260830190303 74 265 4.0 11.0 0.00 0.00 0.00 51 1013.2
20260830190203 74 137 5.0 11.0 0.00 0.00 0.00 50 1013.3
20260830190103 74 86 5.0 14.0 0.00 0.00 0.00 50 1013.1
20260830190004 74 73 5.0 14.0 0.00 0.00 0.00 50 1013.0
20260830185903 74 60 4.0 14.0 0.00 0.00 0.00 51 1013.2
20260830185803 74 50 4.0 14.0 0.00 0.00 0.00 50 1013.1
20260830185703 74 45 5.0 14.0 0.00 0.00 0.00 51 1013.1
20260830185603 74 29 8.0 14.0 0.00 0.00 0.00 51 1013.3
20260830185503 74 13 5.0 13.0 0.00 0.00 0.00 51 1013.1
20260830185403 74 355 8.0 13.0 0.00 0.00 0.00 51 1013.3
20260830185306 74 41 4.0 11.0 0.00 0.00 0.00 51 1013.2
20260830185203 75 30 2.0 11.0 0.00 0.00 0.00 51 1013.1
20260830185104 74 120 4.0 11.0 0.00 0.00 0.00 51 1013.2
20260830185003 74 77 3.0 11.0 0.00 0.00 0.00 51 1013.0
20260830184903 74 88 6.0 11.0 0.00 0.00 0.00 52 1013.3
20260830184803 74 100 5.0 11.0 0.00 0.00 0.00 52 1013.2
20260830184703 74 42 5.0 11.0 0.00 0.00 0.00 51 1013.1
20260830184617 75 20 2.0 13.0 0.00 0.00 0.00 51 1013.2
20260830184603 75 22 2.0 13.0 0.00 0.00 0.00 51 1013.2
20260830184504 74 23 2.0 13.0 0.00 0.00 0.00 52 1013.2
20260830184303 74 25 3.0 13.0 0.00 0.00 0.00 52 1013.3
20260830184203 74 27 3.0 13.0 0.00 0.00 0.00 52 1013.1
20260830184103 73 32 6.0 13.0 0.00 0.00 0.00 52 1013.1
20260830184003 73 43 4.0 11.0 0.00 0.00 0.00 53 1013.2
20260830183903 73 60 5.0 11.0 0.00 0.00 0.00 54 1013.4
20260830183803 73 62 3.0 11.0 0.00 0.00 0.00 55 1013.4
20260830183703 73 63 4.0 11.0 0.00 0.00 0.00 55 1013.1
20260830183603 73 65 4.0 11.0 0.00 0.00 0.00 54 1013.2
20260830183503 73 72 4.0 11.0 0.00 0.00 0.00 53 1013.1
20260830183418 73 69 5.0 11.0 0.00 0.00 0.00 53 1013.5
20260830183403 73 73 5.0 11.0 0.00 0.00 0.00 53 1013.5
20260830183303 73 57 4.0 14.0 0.00 0.00 0.00 53 1013.4
20260830183217 74 58 4.0 14.0 0.00 0.00 0.00 53 1013.2
20260830183103 73 49 4.0 14.0 0.00 0.00 0.00 54 1013.4
20260830182903 73 39 7.0 14.0 0.00 0.00 0.00 55 1013.5
20260830182803 73 50 8.0 14.0 0.00 0.00 0.00 55 1013.2
20260830182703 73 66 5.0 11.0 0.00 0.00 0.00 57 1013.3
20260830182616 73 84 5.0 13.0 0.00 0.00 0.00 57 1013.2
20260830182603 73 88 5.0 13.0 0.00 0.00 0.00 57 1013.2
20260830182503 73 94 5.0 13.0 0.00 0.00 0.00 58 1013.1
20260830182306 74 56 2.0 13.0 0.00 0.00 0.00 58 1013.4
20260830182203 73 39 3.0 13.0 0.00 0.00 0.00 58 1013.4
20260830182117 73 35 5.0 13.0 0.00 0.00 0.00 58 1013.3
20260830182103 73 33 5.0 13.0 0.00 0.00 0.00 58 1013.3
20260830182003 73 32 4.0 11.0 0.00 0.00 0.00 59 1013.5
20260830181916 73 38 4.0 11.0 0.00 0.00 0.00 58 1013.3
20260830181817 73 47 5.0 11.0 0.00 0.00 0.00 59 1013.3
20260830181803 73 52 5.0 11.0 0.00 0.00 0.00 59 1013.3
20260830181517 72 55 4.0 9.0 0.00 0.00 0.00 61 1013.4
20260830181503 72 53 2.0 9.0 0.00 0.00 0.00 61 1013.3
20260830181403 72 45 3.0 9.0 0.00 0.00 0.00 61 1013.4
20260830181203 72 17 5.0 9.0 0.00 0.00 0.00 61 1013.5
20260830181103 72 14 4.0 9.0 0.00 0.00 0.00 60 1013.4
20260830181018 73 4 4.0 9.0 0.00 0.00 0.00 60 1013.4
20260830181003 73 2 4.0 9.0 0.00 0.00 0.00 60 1013.4
20260830180917 73 3 4.0 9.0 0.00 0.00 0.00 60 1013.4
20260830180903 73 1 4.0 9.0 0.00 0.00 0.00 60 1013.4
20260830180603 73 46 2.0 11.0 0.00 0.00 0.00 60 1013.6
20260830180503 72 37 4.0 11.0 0.00 0.00 0.00 60 1013.6
20260830180418 72 40 4.0 11.0 0.00 0.00 0.00 61 1013.5
20260830180403 72 42 4.0 11.0 0.00 0.00 0.00 61 1013.5
20260830180303 72 50 4.0 9.0 0.00 0.00 0.00 60 1013.6
20260830180117 72 80 5.0 11.0 0.00 0.00 0.00 61 1013.5
20260830180103 72 83 5.0 11.0 0.00 0.00 0.00 61 1013.5
20260830180018 72 83 4.0 11.0 0.00 0.00 0.00 61 1013.7
20260830180003 72 84 4.0 11.0 0.00 0.00 0.00 61 1013.7
20260830175703 72 95 5.0 11.0 0.00 0.00 0.00 62 1013.9
20260830175603 72 97 5.0 11.0 0.00 0.00 0.00 61 1013.9
20260830175503 72 98 4.0 11.0 0.00 0.00 0.00 61 1013.9
20260830175404 72 78 4.0 11.0 0.00 0.00 0.00 61 1013.7
20260830175305 72 78 5.0 11.0 0.00 0.00 0.00 61 1014.0
20260830175203 72 88 4.0 11.0 0.00 0.00 0.00 61 1013.8
20260830175103 72 88 4.0 8.0 0.00 0.00 0.00 62 1013.7
20260830175003 72 98 3.0 7.0 0.00 0.00 0.00 62 1014.3
20260830174903 72 116 3.0 7.0 0.00 0.00 0.00 62 1013.7
20260830174803 72 114 3.0 9.0 0.00 0.00 0.00 63 1014.1
20260830174703 71 103 4.0 9.0 0.00 0.00 0.00 62 1013.8
20260830174618 72 96 5.0 9.0 0.00 0.00 0.00 63 1014.1
20260830174603 72 95 5.0 9.0 0.00 0.00 0.00 63 1014.1
20260830174503 72 100 4.0 9.0 0.00 0.00 0.00 62 1013.9
20260830174303 72 60 4.0 11.0 0.00 0.00 0.00 62 1014.0
20260830174217 72 81 5.0 11.0 0.00 0.00 0.00 62 1014.1
20260830174206 72 84 5.0 11.0 0.00 0.00 0.00 62 1014.1
20260830174103 72 99 4.0 11.0 0.00 0.00 0.00 62 1014.1
20260830173903 72 91 4.0 11.0 0.00 0.00 0.00 63 1014.0
20260830173817 72 84 6.0 11.0 0.00 0.00 0.00 63 1014.0
20260830173803 72 61 6.0 11.0 0.00 0.00 0.00 63 1014.0
20260830173703 72 55 4.0 11.0 0.00 0.00 0.00 63 1014.0
20260830173503 72 32 3.0 11.0 0.00 0.00 0.00 64 1014.1
20260830173403 72 56 4.0 11.0 0.00 0.00 0.00 64 1014.1
20260830173303 72 69 4.0 11.0 0.00 0.00 0.00 64 1014.1
20260830173217 72 70 3.0 11.0 0.00 0.00 0.00 64 1013.9
20260830173203 72 69 3.0 11.0 0.00 0.00 0.00 64 1013.9
20260830173117 72 68 2.0 11.0 0.00 0.00 0.00 64 1014.2
20260830173103 72 72 3.0 11.0 0.00 0.00 0.00 64 1014.2
20260830172918 71 71 3.0 11.0 0.00 0.00 0.00 64 1014.1
20260830172803 71 67 6.0 11.0 0.00 0.00 0.00 65 1014.2
20260830172618 71 63 7.0 11.0 0.00 0.00 0.00 63 1014.1
20260830172603 71 58 7.0 11.0 0.00 0.00 0.00 63 1014.1
20260830172503 72 55 5.0 11.0 0.00 0.00 0.00 64 1013.9
20260830172417 72 52 5.0 9.0 0.00 0.00 0.00 64 1014.1
20260830172306 72 45 4.0 9.0 0.00 0.00 0.00 64 1014.3
20260830172216 71 41 4.0 9.0 0.00 0.00 0.00 64 1014.2
20260830172103 72 50 4.0 9.0 0.00 0.00 0.00 64 1014.3
20260830171903 71 66 4.0 11.0 0.00 0.00 0.00 64 1014.4
20260830171803 71 67 4.0 11.0 0.00 0.00 0.00 64 1014.4
20260830171703 71 49 5.0 11.0 0.00 0.00 0.00 64 1014.2
20260830171603 71 46 6.0 11.0 0.00 0.00 0.00 64 1014.4
20260830171503 71 29 5.0 11.0 0.00 0.00 0.00 65 1014.5
20260830171403 71 24 4.0 11.0 0.00 0.00 0.00 65 1014.5
20260830171303 71 52 4.0 11.0 0.00 0.00 0.00 65 1014.5
20260830171203 71 76 5.0 11.0 0.00 0.00 0.00 64 1014.5
20260830171103 72 81 2.0 11.0 0.00 0.00 0.00 63 1014.6
20260830171003 72 79 4.0 11.0 0.00 0.00 0.00 63 1014.5
20260830170903 71 65 5.0 11.0 0.00 0.00 0.00 64 1014.5
20260830170803 71 71 4.0 13.0 0.00 0.00 0.00 65 1014.5
20260830170703 70 61 7.0 13.0 0.00 0.00 0.00 66 1014.5
20260830170603 70 52 7.0 13.0 0.00 0.00 0.00 66 1014.8
20260830170503 71 59 6.0 13.0 0.00 0.00 0.00 65 1014.7
20260830170403 71 71 6.0 13.0 0.00 0.00 0.00 65 1014.8
20260830170303 71 64 3.0 11.0 0.00 0.00 0.00 66 1014.5
20260830170203 71 61 4.0 11.0 0.00 0.00 0.00 67 1014.7
20260830170103 70 58 7.0 11.0 0.00 0.00 0.00 67 1014.7
20260830170003 70 54 5.0 11.0 0.00 0.00 0.00 67 1014.8
20260830165903 71 33 5.0 11.0 0.00 0.00 0.00 66 1014.6
20260830165803 71 29 5.0 11.0 0.00 0.00 0.00 66 1014.6
20260830165703 71 15 5.0 11.0 0.00 0.00 0.00 66 1014.9
20260830165603 71 36 4.0 11.0 0.00 0.00 0.00 65 1014.8
20260830165503 71 46 4.0 13.0 0.00 0.00 0.00 66 1014.7
20260830165403 71 61 4.0 13.0 0.00 0.00 0.00 65 1014.9
20260830165305 71 46 4.0 13.0 0.00 0.00 0.00 65 1014.9
20260830165203 71 60 5.0 13.0 0.00 0.00 0.00 64 1014.7
20260830165103 71 59 4.0 13.0 0.00 0.00 0.00 64 1014.9
20260830165017 71 62 4.0 11.0 0.00 0.00 0.00 65 1014.9
20260830165003 71 55 4.0 11.0 0.00 0.00 0.00 65 1014.9
20260830164904 72 51 4.0 9.0 0.00 0.00 0.00 64 1015.0
20260830164816 72 55 3.0 9.0 0.00 0.00 0.00 65 1014.9
20260830164703 72 59 4.0 9.0 0.00 0.00 0.00 64 1015.0
20260830164503 72 68 3.0 11.0 0.00 0.00 0.00 63 1014.9
20260830164403 71 63 3.0 11.0 0.00 0.00 0.00 64 1014.9
20260830164303 71 60 3.0 11.0 0.00 0.00 0.00 66 1014.9
20260830164203 71 60 3.0 11.0 0.00 0.00 0.00 67 1015.0
20260830164103 71 88 7.0 11.0 0.00 0.00 0.00 66 1015.0
20260830164003 71 109 4.0 9.0 0.00 0.00 0.00 65 1014.8
20260830163903 72 131 3.0 8.0 0.00 0.00 0.00 65 1014.9
20260830163803 72 108 2.0 8.0 0.00 0.00 0.00 66 1014.9
20260830163703 71 118 4.0 8.0 0.00 0.00 0.00 66 1014.8
20260830163618 71 129 3.0 8.0 0.00 0.00 0.00 66 1014.9
20260830163603 71 135 3.0 8.0 0.00 0.00 0.00 66 1014.9
20260830163503 71 115 4.0 11.0 0.00 0.00 0.00 66 1015.0
20260830163303 71 70 3.0 11.0 0.00 0.00 0.00 67 1014.8
20260830163218 70 75 4.0 11.0 0.00 0.00 0.00 67 1015.0
20260830163203 70 70 4.0 11.0 0.00 0.00 0.00 67 1015.0
20260830163103 70 59 4.0 13.0 0.00 0.00 0.00 66 1014.9
20260830162903 71 50 4.0 13.0 0.00 0.00 0.00 65 1015.0
20260830162803 71 45 4.0 13.0 0.00 0.00 0.00 67 1015.1
20260830162703 70 58 8.0 13.0 0.00 0.00 0.00 67 1014.9
20260830162618 71 64 4.0 11.0 0.00 0.00 0.00 66 1015.1
20260830162603 71 62 4.0 11.0 0.00 0.00 0.00 66 1015.1
20260830162518 71 59 2.0 11.0 0.00 0.00 0.00 67 1015.1
20260830162417 70 55 4.0 11.0 0.00 0.00 0.00 67 1015.2
20260830162318 70 62 4.0 11.0 0.00 0.00 0.00 67 1015.0
20260830162003 70 33 3.0 11.0 0.00 0.00 0.00 68 1015.2
20260830161903 70 46 6.0 11.0 0.00 0.00 0.00 67 1015.3
20260830161803 70 47 3.0 11.0 0.00 0.00 0.00 68 1015.1
20260830161703 70 52 4.0 11.0 0.00 0.00 0.00 68 1015.1
20260830161603 70 71 4.0 11.0 0.00 0.00 0.00 68 1015.2
20260830161503 70 73 4.0 9.0 0.00 0.00 0.00 68 1015.2
20260830161417 69 71 4.0 9.0 0.00 0.00 0.00 68 1015.4
20260830161403 69 73 4.0 9.0 0.00 0.00 0.00 68 1015.4
20260830161317 69 76 4.0 9.0 0.00 0.00 0.00 68 1014.9
20260830161303 69 74 4.0 9.0 0.00 0.00 0.00 68 1014.9
20260830161004 69 50 5.0 11.0 0.00 0.00 0.00 68 1015.2
20260830160904 69 53 4.0 11.0 0.00 0.00 0.00 69 1015.4
20260830160804 69 48 5.0 11.0 0.00 0.00 0.00 69 1015.4
20260830160703 69 45 5.0 11.0 0.00 0.00 0.00 69 1015.3
20260830160603 69 57 4.0 11.0 0.00 0.00 0.00 69 1015.5
20260830160508 69 64 6.0 11.0 0.00 0.00 0.00 69 1015.4
20260830160303 70 35 2.0 14.0 0.00 0.00 0.00 69 1015.5
20260830160203 69 33 4.0 14.0 0.00 0.00 0.00 69 1015.4
20260830160103 70 37 3.0 14.0 0.00 0.00 0.00 68 1015.5
20260830160003 69 25 4.0 14.0 0.00 0.00 0.00 69 1015.5
20260830155903 70 33 4.0 11.0 0.00 0.00 0.00 69 1015.6
20260830155803 70 45 3.0 11.0 0.00 0.00 0.00 70 1015.6
20260830155703 69 42 3.0 11.0 0.00 0.00 0.00 70 1015.5
20260830155618 69 42 4.0 11.0 0.00 0.00 0.00 71 1015.8
20260830155603 69 43 4.0 11.0 0.00 0.00 0.00 71 1015.8
20260830155528 68 45 7.0 11.0 0.00 0.00 0.00 71 1015.9
20260830155503 68 50 5.0 11.0 0.00 0.00 0.00 70 1015.7
20260830155203 68 56 6.0 11.0 0.00 0.00 0.00 70 1015.8
20260830155117 69 55 5.0 11.0 0.00 0.00 0.00 69 1015.8
20260830155103 69 56 5.0 11.0 0.00 0.00 0.00 70 1015.8
20260830155004 69 58 4.0 11.0 0.00 0.00 0.00 70 1015.7
20260830154918 69 58 4.0 11.0 0.00 0.00 0.00 69 1015.6
20260830154803 69 67 2.0 11.0 0.00 0.00 0.00 69 1015.7
20260830154603 69 59 4.0 11.0 0.00 0.00 0.00 69 1015.9
20260830154503 69 38 3.0 9.0 0.00 0.00 0.00 69 1015.8
20260830154403 69 46 3.0 9.0 0.00 0.00 0.00 70 1015.8
20260830154303 69 33 3.0 9.0 0.00 0.00 0.00 70 1015.9
20260830154203 69 35 3.0 11.0 0.00 0.00 0.00 70 1016.0
20260830154103 68 50 4.0 11.0 0.00 0.00 0.00 71 1016.0
20260830154003 68 58 4.0 11.0 0.00 0.00 0.00 71 1015.8
20260830153903 67 50 4.0 11.0 0.00 0.00 0.00 72 1016.0
20260830153803 67 58 4.0 11.0 0.00 0.00 0.00 72 1016.0
20260830153703 68 75 7.0 11.0 0.00 0.00 0.00 71 1016.0
20260830153503 68 63 5.0 13.0 0.00 0.00 0.00 70 1016.1
20260830153417 68 60 4.0 13.0 0.00 0.00 0.00 71 1016.2
20260830153403 68 55 4.0 13.0 0.00 0.00 0.00 71 1016.2
20260830153303 68 40 2.0 13.0 0.00 0.00 0.00 72 1016.1
20260830153218 67 31 5.0 13.0 0.00 0.00 0.00 72 1016.1
20260830153103 67 28 3.0 13.0 0.00 0.00 0.00 72 1015.9
20260830153017 67 29 6.0 13.0 0.00 0.00 0.00 72 1016.0
20260830152903 67 52 4.0 9.0 0.00 0.00 0.00 72 1016.2
20260830152818 67 58 5.0 9.0 0.00 0.00 0.00 72 1016.1
20260830152703 68 71 4.0 9.0 0.00 0.00 0.00 71 1016.0
20260830152617 68 68 4.0 9.0 0.00 0.00 0.00 71 1016.2
20260830152503 68 59 4.0 8.0 0.00 0.00 0.00 71 1016.1
20260830152305 68 53 3.0 11.0 0.00 0.00 0.00 71 1016.3
20260830152203 67 57 3.0 11.0 0.00 0.00 0.00 72 1016.3
20260830152103 67 60 2.0 11.0 0.00 0.00 0.00 72 1016.3
20260830152004 67 73 4.0 11.0 0.00 0.00 0.00 72 1016.0
20260830151903 67 84 6.0 11.0 0.00 0.00 0.00 72 1016.2
20260830151803 67 83 5.0 11.0 0.00 0.00 0.00 72 1016.2
20260830151703 67 78 6.0 11.0 0.00 0.00 0.00 72 1016.1
20260830151603 67 71 5.0 11.0 0.00 0.00 0.00 72 1016.0
20260830151503 67 58 5.0 11.0 0.00 0.00 0.00 72 1016.3
20260830151404 67 49 3.0 9.0 0.00 0.00 0.00 72 1016.1
20260830151303 67 51 5.0 11.0 0.00 0.00 0.00 73 1016.0
20260830151104 67 45 6.0 11.0 0.00 0.00 0.00 72 1016.1
20260830151003 67 47 4.0 11.0 0.00 0.00 0.00 72 1016.2
20260830150903 67 51 4.0 11.0 0.00 0.00 0.00 72 1016.3
20260830150803 67 44 5.0 11.0 0.00 0.00 0.00 72 1016.1
20260830150703 67 59 4.0 8.0 0.00 0.00 0.00 73 1016.1
20260830150617 67 73 3.0 8.0 0.00 0.00 0.00 73 1016.2
20260830150603 67 71 3.0 8.0 0.00 0.00 0.00 73 1016.2
20260830150503 67 67 4.0 8.0 0.00 0.00 0.00 72 1016.1
20260830150317 67 66 4.0 8.0 0.00 0.00 0.00 73 1016.1
20260830150303 67 67 3.0 8.0 0.00 0.00 0.00 73 1016.3
20260830150203 67 49 4.0 11.0 0.00 0.00 0.00 73 1016.2
20260830150118 67 45 4.0 11.0 0.00 0.00 0.00 72 1016.1
20260830150005 67 45 4.0 11.0 0.00 0.00 0.00 73 1016.5
20260830145803 67 49 3.0 11.0 0.00 0.00 0.00 72 1016.5
20260830145717 67 52 5.0 11.0 0.00 0.00 0.00 72 1016.2
20260830145703 67 57 5.0 11.0 0.00 0.00 0.00 72 1016.2
20260830145603 68 44 3.0 9.0 0.00 0.00 0.00 72 1016.4
20260830145403 67 58 3.0 9.0 0.00 0.00 0.00 73 1016.1
20260830145306 67 56 3.0 9.0 0.00 0.00 0.00 73 1016.2
20260830145203 67 61 4.0 9.0 0.00 0.00 0.00 72 1016.2
20260830145103 67 80 2.0 8.0 0.00 0.00 0.00 72 1016.4
20260830145003 67 81 2.0 8.0 0.00 0.00 0.00 72 1016.2
20260830144903 67 76 3.0 8.0 0.00 0.00 0.00 73 1016.4
20260830144818 67 78 3.0 8.0 0.00 0.00 0.00 73 1016.3
20260830144803 67 81 3.0 8.0 0.00 0.00 0.00 73 1016.3
20260830144703 67 89 2.0 8.0 0.00 0.00 0.00 73 1016.3
20260830144617 67 88 3.0 8.0 0.00 0.00 0.00 73 1016.2
20260830144503 67 71 2.0 8.0 0.00 0.00 0.00 73 1016.2
20260830144303 67 75 3.0 8.0 0.00 0.00 0.00 73 1016.3
20260830144203 67 63 4.0 8.0 0.00 0.00 0.00 72 1016.4
20260830144103 67 58 4.0 8.0 0.00 0.00 0.00 72 1016.4
20260830144003 67 52 2.0 7.0 0.00 0.00 0.00 73 1016.3
20260830143903 67 29 2.0 7.0 0.00 0.00 0.00 74 1016.4
20260830143803 66 32 2.0 7.0 0.00 0.00 0.00 75 1016.5
20260830143703 66 28 4.0 9.0 0.00 0.00 0.00 75 1016.4
20260830143603 65 89 4.0 9.0 0.00 0.00 0.00 74 1016.4
20260830143503 66 105 2.0 9.0 0.00 0.00 0.00 74 1016.5
20260830143403 65 93 2.0 9.0 0.00 0.00 0.00 75 1016.2
20260830143303 65 95 4.0 9.0 0.00 0.00 0.00 75 1016.5
20260830143203 65 88 4.0 9.0 0.00 0.00 0.00 75 1016.2
20260830143103 64 69 4.0 11.0 0.00 0.00 0.00 76 1016.3
20260830143003 65 65 4.0 14.0 0.00 0.00 0.00 76 1016.3
20260830142905 64 71 6.0 14.0 0.00 0.00 0.00 75 1016.6
20260830142803 65 77 4.0 14.0 0.00 0.00 0.00 75 1016.3
20260830142703 64 59 4.0 14.0 0.00 0.00 0.00 76 1016.3
20260830142603 64 60 5.0 14.0 0.00 0.00 0.00 75 1016.4
20260830142503 64 58 8.0 14.0 0.00 0.00 0.00 75 1016.3
20260830142403 65 46 4.0 9.0 0.00 0.00 0.00 74 1016.3
20260830142305 65 36 4.0 8.0 0.00 0.00 0.00 74 1016.5
20260830142203 66 55 2.0 7.0 0.00 0.00 0.00 74 1016.4
20260830142103 65 65 3.0 7.0 0.00 0.00 0.00 75 1016.5
20260830142003 65 69 4.0 7.0 0.00 0.00 0.00 75 1016.3
20260830141903 65 78 3.0 7.0 0.00 0.00 0.00 75 1016.5
20260830141803 65 77 3.0 7.0 0.00 0.00 0.00 75 1016.5
20260830141718 65 75 4.0 8.0 0.00 0.00 0.00 75 1016.5
20260830141703 65 73 2.0 8.0 0.00 0.00 0.00 75 1016.5
20260830141418 65 70 2.0 9.0 0.00 0.00 0.00 76 1016.3
20260830141403 65 74 2.0 9.0 0.00 0.00 0.00 76 1016.3
20260830141303 64 76 4.0 9.0 0.00 0.00 0.00 76 1016.5
20260830141217 64 73 4.0 9.0 0.00 0.00 0.00 76 1016.5
20260830141103 65 70 3.0 6.0 0.00 0.00 0.00 75 1016.4
20260830140917 65 43 3.0 7.0 0.00 0.00 0.00 76 1016.5
20260830140903 65 41 3.0 7.0 0.00 0.00 0.00 76 1016.5
20260830140803 64 34 2.0 7.0 0.00 0.00 0.00 76 1016.4
20260830140603 64 54 3.0 7.0 0.00 0.00 0.00 76 1016.5
20260830140503 65 69 2.0 4.0 0.00 0.00 0.00 76 1016.5
20260830140418 65 66 2.0 4.0 0.00 0.00 0.00 76 1016.5
20260830140403 65 64 2.0 4.0 0.00 0.00 0.00 76 1016.5
20260830140317 64 73 2.0 6.0 0.00 0.00 0.00 76 1016.7
20260830140303 64 71 2.0 6.0 0.00 0.00 0.00 76 1016.7
20260830140003 64 82 2.0 9.0 0.00 0.00 0.00 77 1016.6
20260830135903 63 95 3.0 9.0 0.00 0.00 0.00 78 1016.6
20260830135803 63 94 4.0 9.0 0.00 0.00 0.00 78 1016.7
20260830135703 63 88 4.0 9.0 0.00 0.00 0.00 78 1016.6
20260830135603 63 95 3.0 8.0 0.00 0.00 0.00 78 1016.7
20260830135503 63 66 5.0 9.0 0.00 0.00 0.00 78 1016.7
20260830135408 63 37 3.0 9.0 0.00 0.00 0.00 78 1016.6
20260830135306 63 62 3.0 9.0 0.00 0.00 0.00 78 1016.6
20260830135203 63 59 4.0 9.0 0.00 0.00 0.00 78 1016.8
20260830135103 63 44 4.0 9.0 0.00 0.00 0.00 78 1016.8
20260830135016 63 58 3.0 7.0 0.00 0.00 0.00 78 1016.8
20260830135003 63 65 3.0 7.0 0.00 0.00 0.00 78 1016.8
20260830134903 62 83 4.0 8.0 0.00 0.00 0.00 78 1016.6
20260830134703 63 80 4.0 8.0 0.00 0.00 0.00 78 1016.8
20260830134603 63 88 2.0 8.0 0.00 0.00 0.00 78 1016.8
20260830134503 62 86 5.0 8.0 0.00 0.00 0.00 78 1016.6
20260830134403 62 69 3.0 8.0 0.00 0.00 0.00 78 1016.5
20260830134303 62 89 2.0 9.0 0.00 0.00 0.00 78 1016.9
20260830134203 62 97 4.0 9.0 0.00 0.00 0.00 78 1016.9
20260830134103 62 106 2.0 9.0 0.00 0.00 0.00 79 1016.7
20260830134003 62 101 2.0 9.0 0.00 0.00 0.00 79 1016.8
20260830133903 61 99 4.0 9.0 0.00 0.00 0.00 78 1016.8
20260830133803 62 89 5.0 9.0 0.00 0.00 0.00 78 1016.8
20260830133718 62 76 4.0 7.0 0.00 0.00 0.00 79 1016.7
20260830133703 62 72 2.0 7.0 0.00 0.00 0.00 79 1016.8
20260830133603 62 67 2.0 8.0 0.00 0.00 0.00 79 1016.8
20260830133403 61 73 4.0 9.0 0.00 0.00 0.00 80 1016.8
20260830133303 61 65 3.0 9.0 0.00 0.00 0.00 80 1016.8
20260830133203 61 63 4.0 9.0 0.00 0.00 0.00 80 1016.9
20260830133103 60 53 6.0 9.0 0.00 0.00 0.00 80 1016.9
20260830133003 61 43 4.0 9.0 0.00 0.00 0.00 80 1016.9
20260830132903 61 27 5.0 8.0 0.00 0.00 0.00 80 1016.7
20260830132803 61 39 4.0 8.0 0.00 0.00 0.00 80 1016.9
20260830132703 61 41 3.0 9.0 0.00 0.00 0.00 80 1016.5
20260830132603 60 53 4.0 9.0 0.00 0.00 0.00 80 1016.6
20260830132517 60 53 3.0 9.0 0.00 0.00 0.00 80 1016.6
20260830132503 60 54 3.0 9.0 0.00 0.00 0.00 80 1016.7
20260830132403 60 63 4.0 9.0 0.00 0.00 0.00 80 1016.7
20260830132203 60 55 4.0 9.0 0.00 0.00 0.00 80 1016.8
20260830132103 60 39 5.0 9.0 0.00 0.00 0.00 80 1016.8
20260830132003 60 41 4.0 11.0 0.00 0.00 0.00 80 1016.8
20260830131917 60 38 4.0 11.0 0.00 0.00 0.00 80 1016.8
20260830131903 60 34 4.0 11.0 0.00 0.00 0.00 80 1016.8
20260830131817 60 21 4.0 11.0 0.00 0.00 0.00 80 1016.6
20260830131803 60 22 4.0 11.0 0.00 0.00 0.00 80 1016.6
20260830131718 60 28 6.0 11.0 0.00 0.00 0.00 80 1016.9
20260830131403 60 42 3.0 7.0 0.00 0.00 0.00 81 1016.7
20260830131303 59 59 4.0 7.0 0.00 0.00 0.00 80 1016.8
20260830131217 59 62 4.0 7.0 0.00 0.00 0.00 80 1016.8
20260830131203 59 65 4.0 7.0 0.00 0.00 0.00 80 1016.8
20260830131103 59 67 3.0 8.0 0.00 0.00 0.00 80 1016.7
20260830130903 59 77 4.0 8.0 0.00 0.00 0.00 81 1016.8
20260830130803 59 78 2.0 8.0 0.00 0.00 0.00 81 1016.8
20260830130703 58 72 4.0 8.0 0.00 0.00 0.00 81 1016.8
20260830130603 58 63 5.0 8.0 0.00 0.00 0.00 81 1016.9
20260830130503 58 53 2.0 8.0 0.00 0.00 0.00 81 1016.9
20260830130418 58 46 2.0 8.0 0.00 0.00 0.00 81 1016.9
20260830130403 58 44 2.0 8.0 0.00 0.00 0.00 81 1017.0
20260830130303 58 51 2.0 8.0 0.00 0.00 0.00 81 1016.8
20260830130004 58 72 2.0 8.0 0.00 0.00 0.00 80 1017.0
20260830125903 59 68 3.0 8.0 0.00 0.00 0.00 81 1016.8
20260830125803 58 53 4.0 8.0 0.00 0.00 0.00 81 1016.9
20260830125718 58 42 4.0 7.0 0.00 0.00 0.00 80 1016.9
20260830125703 58 39 2.0 7.0 0.00 0.00 0.00 81 1016.8
20260830125603 58 30 4.0 7.0 0.00 0.00 0.00 81 1017.0
20260830125403 58 70 4.0 8.0 0.00 0.00 0.00 81 1016.9
20260830125308 58 79 2.0 8.0 0.00 0.00 0.00 81 1017.0
20260830125203 58 97 3.0 9.0 0.00 0.00 0.00 81 1016.7
20260830125103 58 109 2.0 9.0 0.00 0.00 0.00 81 1017.0
20260830125003 57 96 4.0 9.0 0.00 0.00 0.00 81 1017.2
20260830124903 57 98 4.0 11.0 0.00 0.00 0.00 81 1017.0
20260830124803 57 103 5.0 11.0 0.00 0.00 0.00 81 1017.2
20260830124703 58 98 4.0 11.0 0.00 0.00 0.00 81 1017.1
20260830124603 57 86 3.0 11.0 0.00 0.00 0.00 81 1017.0
20260830124503 57 98 5.0 11.0 0.00 0.00 0.00 81 1016.9
20260830124418 57 76 5.0 11.0 0.00 0.00 0.00 81 1016.9
20260830124403 57 70 4.0 9.0 0.00 0.00 0.00 81 1016.9
20260830124303 57 69 4.0 9.0 0.00 0.00 0.00 80 1017.1
20260830124103 58 276 1.0 7.0 0.00 0.00 0.00 80 1016.7
20260830124003 58 5 4.0 7.0 0.00 0.00 0.00 80 1016.9
20260830123903 58 74 1.0 4.0 0.00 0.00 0.00 80 1016.9
20260830123803 58 66 1.0 4.0 0.00 0.00 0.00 81 1017.1
20260830123703 58 64 1.0 4.0 0.00 0.00 0.00 82 1016.7
20260830123603 57 85 1.0 6.0 0.00 0.00 0.00 82 1017.0
20260830123503 57 90 1.0 8.0 0.00 0.00 0.00 82 1017.0
20260830123403 57 81 1.0 8.0 0.00 0.00 0.00 82 1016.8
20260830123303 56 69 1.0 8.0 0.00 0.00 0.00 83 1017.0
20260830123203 56 70 2.0 8.0 0.00 0.00 0.00 83 1017.0
20260830123103 56 60 3.0 8.0 0.00 0.00 0.00 83 1017.1
20260830123003 56 54 4.0 8.0 0.00 0.00 0.00 83 1016.8
20260830122903 55 57 2.0 7.0 0.00 0.00 0.00 84 1017.1
20260830122803 55 60 4.0 7.0 0.00 0.00 0.00 84 1017.1
20260830122703 55 62 4.0 7.0 0.00 0.00 0.00 83 1017.1
20260830122618 55 63 2.0 7.0 0.00 0.00 0.00 83 1017.0
20260830122603 55 62 2.0 7.0 0.00 0.00 0.00 83 1017.0
20260830122503 55 73 4.0 7.0 0.00 0.00 0.00 83 1016.8
20260830122306 55 68 4.0 7.0 0.00 0.00 0.00 83 1017.0
20260830122203 55 59 4.0 7.0 0.00 0.00 0.00 82 1017.2
20260830122103 55 62 4.0 7.0 0.00 0.00 0.00 82 1017.1
20260830122003 56 53 4.0 7.0 0.00 0.00 0.00 82 1017.0
20260830121903 56 55 4.0 6.0 0.00 0.00 0.00 82 1017.1
20260830121803 56 67 2.0 4.0 0.00 0.00 0.00 82 1017.2
20260830121703 56 77 3.0 6.0 0.00 0.00 0.00 82 1017.0
20260830121613 56 76 2.0 6.0 0.00 0.00 0.00 82 1017.0
20260830121503 56 66 2.0 6.0 0.00 0.00 0.00 82 1017.0
20260830121404 56 46 2.0 6.0 0.00 0.00 0.00 83 1017.0
20260830121303 56 50 3.0 6.0 0.00 0.00 0.00 83 1017.0
20260830121203 56 50 2.0 6.0 0.00 0.00 0.00 83 1016.7
20260830121103 55 55 2.0 6.0 0.00 0.00 0.00 83 1016.9
20260830121003 55 65 1.0 6.0 0.00 0.00 0.00 83 1016.9
20260830120903 55 71 2.0 6.0 0.00 0.00 0.00 83 1016.8
20260830120803 55 71 3.0 6.0 0.00 0.00 0.00 83 1016.8
20260830120703 55 77 3.0 6.0 0.00 0.00 0.00 83 1016.9
20260830120603 55 80 3.0 6.0 0.00 0.00 0.00 83 1017.0
20260830120503 55 71 3.0 6.0 0.00 0.00 0.00 83 1017.1
20260830120403 55 78 2.0 6.0 0.00 0.00 0.00 83 1017.0
20260830120303 55 68 2.0 6.0 0.00 0.00 0.00 83 1016.9
20260830120203 55 77 1.0 7.0 0.00 0.00 0.00 83 1017.0
20260830120103 54 73 2.0 7.0 0.00 0.00 0.00 83 1016.9
20260830120004 55 73 1.0 7.0 0.00 0.00 0.00 84 1016.9
20260830115903 54 73 2.0 7.0 0.00 0.00 0.00 84 1016.9
20260830115803 54 64 2.0 7.0 0.00 0.00 0.00 84 1016.8
20260830115703 54 61 1.0 7.0 0.00 0.00 0.00 84 1016.8
20260830115603 54 64 2.0 7.0 0.00 0.00 0.00 84 1016.8
20260830115503 54 71 4.0 7.0 0.00 0.00 0.00 84 1017.0
20260830115403 54 74 2.0 7.0 0.00 0.00 0.00 84 1016.9
20260830115306 54 69 4.0 8.0 0.00 0.00 0.00 84 1017.0
20260830115203 54 55 3.0 8.0 0.00 0.00 0.00 84 1016.9
20260830115103 54 51 3.0 8.0 0.00 0.00 0.00 84 1016.9
20260830115018 54 54 4.0 8.0 0.00 0.00 0.00 84 1016.9
20260830115003 54 55 4.0 8.0 0.00 0.00 0.00 84 1016.9
20260830114903 53 64 4.0 8.0 0.00 0.00 0.00 84 1016.8
20260830114717 54 79 3.0 8.0 0.00 0.00 0.00 84 1016.9
20260830114703 54 80 3.0 8.0 0.00 0.00 0.00 84 1016.9
20260830114603 54 76 2.0 8.0 0.00 0.00 0.00 84 1016.8
20260830114403 53 61 2.0 8.0 0.00 0.00 0.00 84 1016.8
20260830114303 53 61 5.0 8.0 0.00 0.00 0.00 84 1016.6
20260830114203 53 63 3.0 9.0 0.00 0.00 0.00 84 1016.7
20260830114103 53 61 5.0 9.0 0.00 0.00 0.00 84 1016.6
20260830114003 53 63 3.0 9.0 0.00 0.00 0.00 84 1016.7
20260830113903 53 72 2.0 9.0 0.00 0.00 0.00 84 1016.8
20260830113803 53 78 3.0 9.0 0.00 0.00 0.00 84 1016.6
20260830113703 53 81 3.0 7.0 0.00 0.00 0.00 84 1016.8
20260830113618 53 89 3.0 7.0 0.00 0.00 0.00 84 1016.8
20260830113503 53 79 4.0 9.0 0.00 0.00 0.00 84 1016.8
20260830113303 53 70 4.0 9.0 0.00 0.00 0.00 84 1016.9
20260830113203 53 71 4.0 9.0 0.00 0.00 0.00 84 1016.9
20260830113117 53 67 2.0 9.0 0.00 0.00 0.00 84 1016.6
20260830113103 53 70 2.0 9.0 0.00 0.00 0.00 84 1016.6
20260830113017 53 81 6.0 9.0 0.00 0.00 0.00 84 1017.1
20260830113003 53 84 6.0 9.0 0.00 0.00 0.00 84 1017.1
20260830112817 53 94 3.0 7.0 0.00 0.00 0.00 85 1017.0
20260830112703 53 97 2.0 7.0 0.00 0.00 0.00 85 1016.7
20260830112503 53 116 4.0 8.0 0.00 0.00 0.00 85 1016.7
20260830112403 53 114 2.0 8.0 0.00 0.00 0.00 85 1016.8
20260830112306 53 124 2.0 8.0 0.00 0.00 0.00 85 1016.6
20260830112203 53 121 2.0 8.0 0.00 0.00 0.00 85 1016.6
20260830112103 53 106 3.0 8.0 0.00 0.00 0.00 85 1016.6
20260830112018 53 97 3.0 8.0 0.00 0.00 0.00 85 1016.6
20260830112003 53 95 2.0 8.0 0.00 0.00 0.00 86 1016.7
20260830111918 53 95 4.0 14.0 0.00 0.00 0.00 85 1016.3
20260830111903 53 91 4.0 14.0 0.00 0.00 0.00 85 1016.3
20260830111603 53 77 4.0 14.0 0.00 0.00 0.00 86 1016.5
20260830111503 53 80 4.0 14.0 0.00 0.00 0.00 86 1016.5
20260830111403 52 78 6.0 14.0 0.00 0.00 0.00 86 1016.4
20260830111318 53 78 3.0 8.0 0.00 0.00 0.00 86 1016.5
20260830111303 53 79 4.0 8.0 0.00 0.00 0.00 86 1016.8
20260830111203 53 80 2.0 9.0 0.00 0.00 0.00 86 1016.8
20260830111017 52 70 4.0 9.0 0.00 0.00 0.00 86 1016.8
20260830111003 52 64 4.0 9.0 0.00 0.00 0.00 86 1016.8
20260830110903 52 65 4.0 9.0 0.00 0.00 0.00 86 1016.9
20260830110703 52 65 5.0 9.0 0.00 0.00 0.00 86 1016.6
20260830110618 52 65 2.0 8.0 0.00 0.00 0.00 86 1016.6
20260830110603 52 69 2.0 8.0 0.00 0.00 0.00 86 1016.6
20260830110503 52 99 1.0 4.0 0.00 0.00 0.00 87 1016.8
20260830110303 52 107 0.0 4.0 0.00 0.00 0.00 87 1017.0
20260830110203 52 105 1.0 4.0 0.00 0.00 0.00 87 1016.9
20260830110004 52 86 1.0 7.0 0.00 0.00 0.00 87 1016.6
20260830105918 52 74 1.0 7.0 0.00 0.00 0.00 87 1016.6
20260830105903 52 67 0.0 7.0 0.00 0.00 0.00 87 1016.7
20260830105803 52 71 0.0 7.0 0.00 0.00 0.00 87 1016.8
20260830105603 52 85 2.0 7.0 0.00 0.00 0.00 88 1016.7
20260830105503 52 103 0.0 4.0 0.00 0.00 0.00 88 1016.8
20260830105403 52 100 0.0 4.0 0.00 0.00 0.00 88 1016.6
20260830105305 52 104 0.0 4.0 0.00 0.00 0.00 88 1017.0
20260830105103 51 98 1.0 4.0 0.00 0.00 0.00 88 1016.6
20260830105003 51 100 1.0 4.0 0.00 0.00 0.00 88 1016.6
20260830104918 51 97 0.0 4.0 0.00 0.00 0.00 89 1016.9
20260830104903 51 97 1.0 4.0 0.00 0.00 0.00 89 1016.8
20260830104803 51 91 0.0 4.0 0.00 0.00 0.00 89 1016.7
20260830104603 51 103 0.0 4.0 0.00 0.00 0.00 89 1017.0
20260830104503 51 96 1.0 4.0 0.00 0.00 0.00 89 1016.8
20260830104417 51 100 1.0 4.0 0.00 0.00 0.00 89 1016.8
20260830104403 51 106 0.0 4.0 0.00 0.00 0.00 89 1016.9
20260830104317 51 112 1.0 4.0 0.00 0.00 0.00 89 1016.7
20260830104303 51 113 1.0 4.0 0.00 0.00 0.00 89 1016.7
20260830104003 51 101 0.0 6.0 0.00 0.00 0.00 89 1016.8
20260830103903 51 97 1.0 6.0 0.00 0.00 0.00 89 1016.8
20260830103803 51 96 0.0 6.0 0.00 0.00 0.00 89 1016.7
20260830103703 51 88 3.0 7.0 0.00 0.00 0.00 89 1016.8
20260830103603 51 88 1.0 7.0 0.00 0.00 0.00 89 1016.8
20260830103503 51 87 2.0 7.0 0.00 0.00 0.00 89 1016.7
20260830103403 51 90 2.0 7.0 0.00 0.00 0.00 89 1016.9
20260830103303 51 81 3.0 7.0 0.00 0.00 0.00 89 1017.0
20260830103203 51 85 1.0 6.0 0.00 0.00 0.00 89 1016.9
20260830103103 51 83 1.0 4.0 0.00 0.00 0.00 89 1016.7
20260830103003 51 79 3.0 4.0 0.00 0.00 0.00 89 1016.7
20260830102903 51 66 2.0 4.0 0.00 0.00 0.00 89 1016.7
20260830102803 51 78 1.0 4.0 0.00 0.00 0.00 89 1016.8
20260830102703 51 84 0.0 4.0 0.00 0.00 0.00 89 1016.9
20260830102603 51 85 1.0 4.0 0.00 0.00 0.00 89 1016.8
20260830102503 51 87 1.0 4.0 0.00 0.00 0.00 89 1016.8
20260830102403 51 86 1.0 4.0 0.00 0.00 0.00 89 1016.7
20260830102306 51 99 3.0 6.0 0.00 0.00 0.00 89 1016.9
20260830102204 51 100 3.0 6.0 0.00 0.00 0.00 89 1016.8
20260830102103 51 104 1.0 6.0 0.00 0.00 0.00 89 1016.8
20260830102003 51 103 1.0 6.0 0.00 0.00 0.00 89 1016.7
20260830101903 51 104 2.0 6.0 0.00 0.00 0.00 89 1016.7
20260830101803 51 95 3.0 6.0 0.00 0.00 0.00 89 1016.9
20260830101703 51 92 3.0 7.0 0.00 0.00 0.00 89 1016.7
20260830101603 51 95 3.0 7.0 0.00 0.00 0.00 89 1016.6
20260830101503 51 87 2.0 7.0 0.00 0.00 0.00 89 1016.7
20260830101417 51 82 1.0 7.0 0.00 0.00 0.00 89 1016.7
20260830101403 51 81 1.0 7.0 0.00 0.00 0.00 89 1016.7
20260830101303 52 81 2.0 7.0 0.00 0.00 0.00 89 1016.4
20260830101103 52 75 2.0 6.0 0.00 0.00 0.00 89 1016.6
20260830101003 52 78 2.0 6.0 0.00 0.00 0.00 89 1016.6
20260830100903 52 77 3.0 6.0 0.00 0.00 0.00 89 1016.4
20260830100803 52 71 2.0 6.0 0.00 0.00 0.00 89 1016.6
20260830100703 52 71 2.0 6.0 0.00 0.00 0.00 89 1016.6
20260830100603 52 73 2.0 6.0 0.00 0.00 0.00 89 1016.4
20260830100503 52 75 3.0 6.0 0.00 0.00 0.00 89 1016.7
20260830100419 52 75 3.0 6.0 0.00 0.00 0.00 89 1016.7
20260830100403 52 75 2.0 6.0 0.00 0.00 0.00 89 1016.3
20260830100317 52 84 2.0 6.0 0.00 0.00 0.00 89 1016.4
20260830100303 52 87 2.0 6.0 0.00 0.00 0.00 89 1016.4
20260830100218 52 87 3.0 6.0 0.00 0.00 0.00 89 1016.2
20260830095903 52 83 2.0 6.0 0.00 0.00 0.00 89 1016.6
20260830095803 52 82 2.0 6.0 0.00 0.00 0.00 89 1016.2
20260830095703 52 90 2.0 6.0 0.00 0.00 0.00 89 1016.4
20260830095617 52 88 2.0 6.0 0.00 0.00 0.00 89 1016.4
20260830095603 52 87 2.0 6.0 0.00 0.00 0.00 89 1016.4
20260830095518 52 97 3.0 6.0 0.00 0.00 0.00 89 1016.5
20260830095503 52 99 3.0 6.0 0.00 0.00 0.00 89 1016.5
20260830095416 52 98 2.0 6.0 0.00 0.00 0.00 89 1016.6
20260830095317 52 102 2.0 6.0 0.00 0.00 0.00 89 1016.5
20260830095003 52 93 3.0 6.0 0.00 0.00 0.00 89 1016.5
20260830094917 52 92 2.0 4.0 0.00 0.00 0.00 89 1016.6
20260830094903 52 93 2.0 4.0 0.00 0.00 0.00 89 1016.5
20260830094803 52 81 2.0 6.0 0.00 0.00 0.00 89 1016.6
20260830094617 52 85 2.0 6.0 0.00 0.00 0.00 89 1016.4
20260830094603 52 88 2.0 6.0 0.00 0.00 0.00 89 1016.4
20260830094503 52 87 2.0 7.0 0.00 0.00 0.00 89 1016.4
20260830094416 52 89 2.0 7.0 0.00 0.00 0.00 89 1016.4
20260830094303 52 89 3.0 7.0 0.00 0.00 0.00 89 1016.3
20260830094103 53 92 2.0 7.0 0.00 0.00 0.00 89 1016.4
20260830094003 53 88 2.0 7.0 0.00 0.00 0.00 88 1016.4
20260830093903 53 79 1.0 4.0 0.00 0.00 0.00 88 1016.4
20260830093803 53 82 1.0 7.0 0.00 0.00 0.00 88 1015.9
20260830093717 53 81 2.0 7.0 0.00 0.00 0.00 88 1016.1
20260830093703 53 81 2.0 7.0 0.00 0.00 0.00 88 1016.2
20260830093603 53 84 2.0 7.0 0.00 0.00 0.00 88 1016.4
20260830093403 53 89 3.0 7.0 0.00 0.00 0.00 88 1016.2
20260830093303 53 93 2.0 7.0 0.00 0.00 0.00 88 1016.3
20260830093217 53 93 2.0 7.0 0.00 0.00 0.00 88 1016.3
20260830093203 53 90 4.0 7.0 0.00 0.00 0.00 88 1016.1
20260830093118 53 81 2.0 6.0 0.00 0.00 0.00 88 1015.9
20260830093103 53 83 2.0 6.0 0.00 0.00 0.00 88 1015.9
20260830093017 53 87 2.0 6.0 0.00 0.00 0.00 88 1016.2
20260830092703 53 86 2.0 6.0 0.00 0.00 0.00 88 1016.1
20260830092603 53 81 3.0 6.0 0.00 0.00 0.00 88 1016.1
20260830092503 53 71 2.0 4.0 0.00 0.00 0.00 88 1016.1
20260830092403 53 68 2.0 4.0 0.00 0.00 0.00 88 1016.2
20260830092305 53 73 2.0 4.0 0.00 0.00 0.00 88 1016.1
20260830092203 53 74 2.0 4.0 0.00 0.00 0.00 88 1015.7
20260830092003 53 106 2.0 4.0 0.00 0.00 0.00 87 1015.9
20260830091903 54 106 2.0 4.0 0.00 0.00 0.00 87 1016.0
20260830091803 54 101 2.0 4.0 0.00 0.00 0.00 87 1016.0
20260830091703 54 91 2.0 4.0 0.00 0.00 0.00 87 1015.9
20260830091603 54 86 2.0 4.0 0.00 0.00 0.00 87 1016.0
20260830091503 54 77 2.0 4.0 0.00 0.00 0.00 87 1015.9
20260830091403 54 76 2.0 6.0 0.00 0.00 0.00 87 1016.0
20260830091303 54 71 2.0 6.0 0.00 0.00 0.00 87 1016.1
20260830091203 54 72 2.0 6.0 0.00 0.00 0.00 87 1016.2
20260830091103 54 66 2.0 6.0 0.00 0.00 0.00 87 1016.0
20260830091003 54 64 2.0 6.0 0.00 0.00 0.00 87 1016.0
20260830090903 54 70 2.0 4.0 0.00 0.00 0.00 87 1016.0
20260830090703 54 82 2.0 6.0 0.00 0.00 0.00 87 1016.0
20260830090603 54 87 2.0 6.0 0.00 0.00 0.00 87 1016.0
20260830090517 54 95 2.0 6.0 0.00 0.00 0.00 87 1016.0
20260830090503 54 99 2.0 6.0 0.00 0.00 0.00 87 1016.1
20260830090403 54 102 2.0 6.0 0.00 0.00 0.00 87 1016.1
20260830090203 54 107 3.0 6.0 0.00 0.00 0.00 87 1016.2
20260830090103 54 110 3.0 4.0 0.00 0.00 0.00 87 1016.2
20260830085903 54 88 2.0 4.0 0.00 0.00 0.00 87 1016.0
20260830085803 54 80 2.0 4.0 0.00 0.00 0.00 87 1016.2
20260830085703 53 71 2.0 4.0 0.00 0.00 0.00 87 1016.1
20260830085603 53 66 2.0 4.0 0.00 0.00 0.00 87 1016.2
20260830085517 54 62 2.0 4.0 0.00 0.00 0.00 87 1016.0
20260830085503 54 58 2.0 4.0 0.00 0.00 0.00 87 1016.0
20260830085403 53 51 2.0 4.0 0.00 0.00 0.00 87 1016.1
20260830085217 53 33 1.0 4.0 0.00 0.00 0.00 87 1016.1
20260830085203 53 30 1.0 4.0 0.00 0.00 0.00 87 1016.0
20260830085103 53 19 2.0 4.0 0.00 0.00 0.00 87 1015.9
20260830084903 53 2 2.0 2.0 0.00 0.00 0.00 87 1016.2
20260830084803 53 360 1.0 2.0 0.00 0.00 0.00 87 1016.0
20260830084703 53 360 2.0 2.0 0.00 0.00 0.00 88 1016.1
20260830084603 53 345 1.0 2.0 0.00 0.00 0.00 88 1016.3
20260830084503 53 264 1.0 2.0 0.00 0.00 0.00 88 1016.3
20260830084418 53 216 1.0 2.0 0.00 0.00 0.00 88 1016.3
20260830084403 52 215 0.0 2.0 0.00 0.00 0.00 88 1016.3
20260830084303 52 200 0.0 2.0 0.00 0.00 0.00 88 1016.0
20260830084103 52 187 0.0 2.0 0.00 0.00 0.00 88 1016.2
20260830084004 52 177 0.0 2.0 0.00 0.00 0.00 88 1016.3
20260830083903 52 173 0.0 2.0 0.00 0.00 0.00 88 1016.3
20260830083803 52 160 0.0 2.0 0.00 0.00 0.00 88 1016.1
20260830083703 52 152 1.0 4.0 0.00 0.00 0.00 88 1016.1
20260830083603 52 143 1.0 4.0 0.00 0.00 0.00 87 1016.0
20260830083503 52 142 1.0 4.0 0.00 0.00 0.00 87 1016.2
20260830083403 52 139 1.0 4.0 0.00 0.00 0.00 87 1016.2
20260830083317 52 138 2.0 4.0 0.00 0.00 0.00 87 1016.1
20260830083303 52 136 1.0 4.0 0.00 0.00 0.00 87 1016.2
20260830083203 52 124 2.0 4.0 0.00 0.00 0.00 87 1016.1
20260830083118 52 124 1.0 4.0 0.00 0.00 0.00 87 1016.0
20260830083003 52 108 0.0 4.0 0.00 0.00 0.00 87 1016.0
20260830082817 52 95 2.0 4.0 0.00 0.00 0.00 87 1016.0
20260830082803 52 92 1.0 4.0 0.00 0.00 0.00 87 1015.7
20260830082718 52 87 1.0 4.0 0.00 0.00 0.00 87 1015.9
20260830082703 52 86 1.0 4.0 0.00 0.00 0.00 87 1015.9
20260830082403 52 76 1.0 4.0 0.00 0.00 0.00 87 1015.4
20260830082306 52 75 2.0 4.0 0.00 0.00 0.00 86 1015.6
20260830082203 52 67 2.0 4.0 0.00 0.00 0.00 86 1015.6
20260830082118 52 66 1.0 4.0 0.00 0.00 0.00 86 1015.4
20260830082103 52 67 2.0 4.0 0.00 0.00 0.00 86 1015.5
20260830082003 52 65 1.0 4.0 0.00 0.00 0.00 86 1015.5
20260830081803 52 66 2.0 4.0 0.00 0.00 0.00 86 1015.7
20260830081703 52 77 2.0 4.0 0.00 0.00 0.00 86 1015.4
20260830081603 52 76 2.0 4.0 0.00 0.00 0.00 86 1015.7
20260830081503 52 79 1.0 4.0 0.00 0.00 0.00 86 1015.4
20260830081403 52 87 1.0 4.0 0.00 0.00 0.00 86 1015.8
20260830081303 53 88 2.0 4.0 0.00 0.00 0.00 86 1015.5
20260830081203 53 86 2.0 4.0 0.00 0.00 0.00 85 1015.5
20260830081103 53 83 2.0 4.0 0.00 0.00 0.00 85 1015.4
20260830081003 53 77 2.0 4.0 0.00 0.00 0.00 85 1015.6
20260830080903 53 64 2.0 4.0 0.00 0.00 0.00 85 1015.5
20260830080803 53 52 2.0 4.0 0.00 0.00 0.00 85 1015.4
20260830080703 53 45 2.0 4.0 0.00 0.00 0.00 85 1015.4
20260830080603 53 42 2.0 4.0 0.00 0.00 0.00 85 1015.4
20260830080517 53 35 2.0 4.0 0.00 0.00 0.00 85 1015.4
20260830080503 53 32 2.0 4.0 0.00 0.00 0.00 85 1015.4
20260830080403 53 25 2.0 4.0 0.00 0.00 0.00 85 1015.6
20260830080318 53 29 2.0 4.0 0.00 0.00 0.00 85 1015.5
20260830080203 53 37 2.0 4.0 0.00 0.00 0.00 85 1015.7
20260830080003 53 48 2.0 4.0 0.00 0.00 0.00 85 1015.5
20260830075917 53 62 2.0 4.0 0.00 0.00 0.00 85 1015.5
20260830075903 53 66 2.0 4.0 0.00 0.00 0.00 85 1015.5
20260830075803 53 64 2.0 4.0 0.00 0.00 0.00 85 1015.7
20260830075603 53 62 2.0 4.0 0.00 0.00 0.00 85 1015.8
20260830075503 53 65 2.0 4.0 0.00 0.00 0.00 85 1015.8
20260830075403 53 65 3.0 4.0 0.00 0.00 0.00 85 1015.7
20260830075306 53 76 2.0 4.0 0.00 0.00 0.00 85 1015.5
20260830075203 53 82 2.0 4.0 0.00 0.00 0.00 85 1015.6
20260830075106 53 76 2.0 4.0 0.00 0.00 0.00 85 1015.6
20260830075003 53 70 2.0 4.0 0.00 0.00 0.00 85 1015.5
20260830074903 53 65 2.0 4.0 0.00 0.00 0.00 85 1015.5
20260830074803 53 60 2.0 4.0 0.00 0.00 0.00 85 1015.7
20260830074703 53 56 2.0 4.0 0.00 0.00 0.00 85 1015.5
20260830074603 53 62 2.0 4.0 0.00 0.00 0.00 85 1015.6
20260830074503 53 66 2.0 2.0 0.00 0.00 0.00 85 1015.5
20260830074418 53 70 2.0 2.0 0.00 0.00 0.00 85 1015.5
20260830074403 53 72 2.0 2.0 0.00 0.00 0.00 85 1015.6
20260830074303 53 83 1.0 2.0 0.00 0.00 0.00 85 1015.3
20260830074117 53 84 1.0 2.0 0.00 0.00 0.00 85 1015.6
20260830074103 53 84 2.0 2.0 0.00 0.00 0.00 85 1015.6
20260830074018 53 85 2.0 2.0 0.00 0.00 0.00 85 1015.6
20260830074003 53 87 2.0 2.0 0.00 0.00 0.00 85 1015.6
20260830073817 53 80 1.0 2.0 0.00 0.00 0.00 85 1015.8
20260830073703 53 81 0.0 2.0 0.00 0.00 0.00 85 1016.0
20260830073503 53 92 1.0 4.0 0.00 0.00 0.00 85 1015.8
20260830073403 53 83 0.0 4.0 0.00 0.00 0.00 85 1015.7
20260830073318 53 84 1.0 4.0 0.00 0.00 0.00 84 1015.9
20260830073303 53 82 1.0 4.0 0.00 0.00 0.00 85 1016.0
20260830073203 53 77 1.0 4.0 0.00 0.00 0.00 84 1015.9
20260830073003 53 59 1.0 4.0 0.00 0.00 0.00 85 1015.9
20260830072903 53 65 2.0 4.0 0.00 0.00 0.00 85 1015.9
20260830072803 53 63 2.0 4.0 0.00 0.00 0.00 85 1015.8
20260830072703 53 71 2.0 2.0 0.00 0.00 0.00 85 1015.8
20260830072616 53 82 1.0 2.0 0.00 0.00 0.00 85 1016.0
20260830072603 53 86 1.0 2.0 0.00 0.00 0.00 85 1016.0
20260830072503 53 104 2.0 2.0 0.00 0.00 0.00 85 1015.9
20260830072306 53 102 0.0 2.0 0.00 0.00 0.00 84 1015.8
20260830072203 53 98 1.0 2.0 0.00 0.00 0.00 84 1015.9
20260830072103 53 88 1.0 2.0 0.00 0.00 0.00 84 1015.8
20260830072003 53 79 1.0 2.0 0.00 0.00 0.00 84 1016.1
20260830071903 53 74 0.0 2.0 0.00 0.00 0.00 84 1015.9
20260830071803 53 80 1.0 2.0 0.00 0.00 0.00 84 1015.7
20260830071703 53 83 1.0 2.0 0.00 0.00 0.00 84 1016.0
20260830071603 53 89 1.0 4.0 0.00 0.00 0.00 84 1015.8
20260830071503 53 98 0.0 4.0 0.00 0.00 0.00 84 1015.9
20260830071403 53 99 1.0 4.0 0.00 0.00 0.00 84 1016.1
20260830071303 53 96 1.0 4.0 0.00 0.00 0.00 84 1016.0
20260830071203 53 94 1.0 4.0 0.00 0.00 0.00 84 1016.0
20260830071103 53 85 2.0 4.0 0.00 0.00 0.00 84 1016.0
20260830071003 53 72 2.0 4.0 0.00 0.00 0.00 83 1015.9
20260830070903 53 68 0.0 4.0 0.00 0.00 0.00 83 1015.8
20260830070803 53 71 1.0 4.0 0.00 0.00 0.00 83 1016.0
20260830070703 53 72 2.0 4.0 0.00 0.00 0.00 83 1015.9
20260830070603 53 73 2.0 4.0 0.00 0.00 0.00 83 1016.1
20260830070503 53 87 1.0 4.0 0.00 0.00 0.00 83 1016.0
20260830070421 53 89 1.0 4.0 0.00 0.00 0.00 83 1016.0
20260830070403 53 90 2.0 4.0 0.00 0.00 0.00 83 1016.1
20260830070303 53 92 2.0 4.0 0.00 0.00 0.00 82 1015.8
20260830070218 53 93 2.0 4.0 0.00 0.00 0.00 82 1016.1
20260830070018 53 92 2.0 4.0 0.00 0.00 0.00 82 1016.1
20260830065903 53 83 1.0 4.0 0.00 0.00 0.00 82 1016.0
20260830065703 54 55 2.0 4.0 0.00 0.00 0.00 81 1015.9
20260830065603 54 46 2.0 4.0 0.00 0.00 0.00 81 1015.6
20260830065503 54 37 2.0 4.0 0.00 0.00 0.00 81 1015.7
20260830065403 54 28 3.0 8.0 0.00 0.00 0.00 81 1015.7
20260830065306 54 31 2.0 8.0 0.00 0.00 0.00 81 1015.6
20260830065203 54 30 2.0 8.0 0.00 0.00 0.00 81 1015.5
20260830065103 54 27 2.0 8.0 0.00 0.00 0.00 81 1015.8
20260830065009 54 27 2.0 8.0 0.00 0.00 0.00 81 1015.7
20260830064903 54 25 3.0 7.0 0.00 0.00 0.00 81 1015.6
20260830064803 54 24 2.0 7.0 0.00 0.00 0.00 81 1015.6
20260830064703 54 27 3.0 7.0 0.00 0.00 0.00 81 1015.6
20260830064618 54 30 2.0 7.0 0.00 0.00 0.00 81 1015.9
20260830064603 54 29 2.0 7.0 0.00 0.00 0.00 81 1015.9
20260830064503 54 38 4.0 6.0 0.00 0.00 0.00 81 1015.7
20260830064303 54 50 2.0 4.0 0.00 0.00 0.00 80 1015.8
20260830064203 54 53 2.0 4.0 0.00 0.00 0.00 80 1015.8
20260830064103 54 56 2.0 4.0 0.00 0.00 0.00 80 1015.8
20260830064003 54 62 2.0 4.0 0.00 0.00 0.00 80 1016.0
20260830063903 54 67 2.0 4.0 0.00 0.00 0.00 80 1016.0
20260830063808 54 68 2.0 4.0 0.00 0.00 0.00 80 1016.1
20260830063703 55 68 2.0 4.0 0.00 0.00 0.00 80 1016.3
20260830063603 55 70 2.0 4.0 0.00 0.00 0.00 79 1016.0
20260830063517 55 70 2.0 4.0 0.00 0.00 0.00 79 1016.2
20260830063503 55 69 2.0 4.0 0.00 0.00 0.00 79 1016.2
20260830063417 55 63 2.0 4.0 0.00 0.00 0.00 79 1016.2
20260830063403 55 61 2.0 4.0 0.00 0.00 0.00 79 1016.2
20260830063318 55 63 2.0 4.0 0.00 0.00 0.00 79 1016.2
20260830063003 55 67 2.0 6.0 0.00 0.00 0.00 79 1016.3
20260830062903 55 70 2.0 6.0 0.00 0.00 0.00 79 1016.7
20260830062803 55 66 2.0 6.0 0.00 0.00 0.00 79 1016.5
20260830062703 55 64 2.0 6.0 0.00 0.00 0.00 79 1016.4
20260830062609 55 64 2.0 6.0 0.00 0.00 0.00 79 1016.5
20260830062503 55 65 2.0 4.0 0.00 0.00 0.00 79 1016.7
20260830062318 55 60 2.0 4.0 0.00 0.00 0.00 78 1016.5
20260830062305 55 61 2.0 4.0 0.00 0.00 0.00 78 1016.5
20260830062203 55 68 2.0 4.0 0.00 0.00 0.00 78 1016.4
20260830062117 55 70 2.0 4.0 0.00 0.00 0.00 78 1016.6
20260830062003 55 65 2.0 4.0 0.00 0.00 0.00 77 1016.4
20260830061803 55 71 2.0 4.0 0.00 0.00 0.00 76 1016.6
20260830061703 55 68 2.0 4.0 0.00 0.00 0.00 76 1016.8
20260830061618 55 70 2.0 4.0 0.00 0.00 0.00 76 1016.8
20260830061603 55 67 1.0 4.0 0.00 0.00 0.00 76 1016.6
20260830061503 56 63 2.0 4.0 0.00 0.00 0.00 76 1016.7
20260830061318 55 68 2.0 4.0 0.00 0.00 0.00 76 1016.5
20260830061303 55 66 3.0 4.0 0.00 0.00 0.00 76 1016.7
20260830061203 55 65 2.0 4.0 0.00 0.00 0.00 76 1016.7
20260830061003 55 63 2.0 4.0 0.00 0.00 0.00 77 1016.9
20260830060903 55 52 2.0 2.0 0.00 0.00 0.00 77 1016.7
20260830060803 55 54 2.0 2.0 0.00 0.00 0.00 77 1016.8
20260830060703 55 57 2.0 2.0 0.00 0.00 0.00 77 1016.8
20260830060603 55 65 2.0 2.0 0.00 0.00 0.00 77 1016.8
20260830060503 55 71 1.0 2.0 0.00 0.00 0.00 78 1016.8
20260830060403 55 80 0.0 2.0 0.00 0.00 0.00 78 1016.7
20260830060303 55 82 1.0 4.0 0.00 0.00 0.00 78 1016.7
20260830060203 55 85 1.0 4.0 0.00 0.00 0.00 78 1016.7
20260830060107 55 82 1.0 4.0 0.00 0.00 0.00 78 1016.7
20260830060003 55 85 2.0 4.0 0.00 0.00 0.00 78 1016.7
20260830055903 55 81 2.0 4.0 0.00 0.00 0.00 78 1016.6
20260830055803 55 78 2.0 4.0 0.00 0.00 0.00 78 1017.0
20260830055703 56 82 2.0 4.0 0.00 0.00 0.00 78 1016.7
20260830055603 56 83 2.0 4.0 0.00 0.00 0.00 78 1016.8
20260830055503 56 78 2.0 4.0 0.00 0.00 0.00 78 1016.8
20260830055403 56 77 2.0 4.0 0.00 0.00 0.00 78 1016.7
20260830055203 56 60 1.0 4.0 0.00 0.00 0.00 78 1016.8
20260830055103 56 47 2.0 4.0 0.00 0.00 0.00 78 1016.9
20260830055017 56 48 2.0 4.0 0.00 0.00 0.00 78 1016.9
20260830055003 56 50 2.0 4.0 0.00 0.00 0.00 78 1016.9
20260830054903 56 57 2.0 4.0 0.00 0.00 0.00 78 1016.8
20260830054717 56 44 2.0 4.0 0.00 0.00 0.00 78 1017.0
20260830054703 56 46 2.0 4.0 0.00 0.00 0.00 78 1017.0
20260830054603 55 50 2.0 4.0 0.00 0.00 0.00 78 1017.0
20260830054518 55 44 2.0 4.0 0.00 0.00 0.00 79 1017.0
20260830054403 55 33 1.0 4.0 0.00 0.00 0.00 79 1016.9
20260830054218 55 51 2.0 4.0 0.00 0.00 0.00 79 1017.0
20260830054203 55 55 2.0 4.0 0.00 0.00 0.00 79 1017.0
20260830054103 55 64 2.0 2.0 0.00 0.00 0.00 80 1017.1
20260830053918 55 75 1.0 2.0 0.00 0.00 0.00 80 1017.0
20260830053903 55 77 1.0 2.0 0.00 0.00 0.00 80 1017.0
20260830053803 55 82 1.0 2.0 0.00 0.00 0.00 80 1017.0
20260830053717 55 84 1.0 2.0 0.00 0.00 0.00 80 1017.3
20260830053612 55 90 0.0 2.0 0.00 0.00 0.00 80 1017.3
20260830053417 55 73 1.0 2.0 0.00 0.00 0.00 80 1017.0
20260830053403 55 71 1.0 2.0 0.00 0.00 0.00 80 1017.0
20260830053303 55 45 0.0 2.0 0.00 0.00 0.00 80 1017.1
20260830053117 55 49 0.0 2.0 0.00 0.00 0.00 80 1017.0
20260830053103 55 53 0.0 2.0 0.00 0.00 0.00 80 1017.0
20260830053017 55 62 0.0 2.0 0.00 0.00 0.00 80 1017.4
20260830053003 55 66 0.0 2.0 0.00 0.00 0.00 80 1017.4
20260830052717 55 92 1.0 2.0 0.00 0.00 0.00 80 1017.4
20260830052703 55 95 1.0 2.0 0.00 0.00 0.00 80 1017.4
20260830052603 55 103 1.0 2.0 0.00 0.00 0.00 80 1017.4
20260830052417 55 117 1.0 2.0 0.00 0.00 0.00 80 1017.2
20260830052403 54 120 1.0 2.0 0.00 0.00 0.00 80 1017.1
20260830052306 54 124 0.0 2.0 0.00 0.00 0.00 80 1017.3
20260830052218 54 127 0.0 2.0 0.00 0.00 0.00 80 1017.2
20260830052103 54 130 0.0 2.0 0.00 0.00 0.00 80 1017.1
20260830051903 54 121 0.0 2.0 0.00 0.00 0.00 80 1017.3
20260830051803 54 117 0.0 2.0 0.00 0.00 0.00 80 1017.1
20260830051703 54 111 1.0 2.0 0.00 0.00 0.00 80 1017.3
20260830051603 54 109 1.0 2.0 0.00 0.00 0.00 80 1017.3
20260830051518 54 104 1.0 2.0 0.00 0.00 0.00 80 1017.2
20260830051503 54 103 1.0 2.0 0.00 0.00 0.00 80 1017.2
20260830051403 54 102 1.0 2.0 0.00 0.00 0.00 80 1017.5
20260830051103 54 89 1.0 2.0 0.00 0.00 0.00 80 1017.2
20260830051003 54 82 0.0 2.0 0.00 0.00 0.00 80 1017.3
20260830050903 54 70 0.0 2.0 0.00 0.00 0.00 81 1016.9
20260830050803 54 66 0.0 2.0 0.00 0.00 0.00 81 1017.3
20260830050703 54 60 1.0 2.0 0.00 0.00 0.00 81 1017.4
20260830050603 54 47 0.0 2.0 0.00 0.00 0.00 81 1017.4
20260830050503 54 39 1.0 2.0 0.00 0.00 0.00 81 1017.3
20260830050403 54 35 0.0 2.0 0.00 0.00 0.00 81 1017.4
20260830050303 54 30 1.0 2.0 0.00 0.00 0.00 81 1017.3
20260830050203 54 24 1.0 2.0 0.00 0.00 0.00 82 1017.4
20260830050116 54 22 0.0 2.0 0.00 0.00 0.00 82 1017.3
20260830050017 54 22 0.0 2.0 0.00 0.00 0.00 82 1017.5
20260830050003 54 25 1.0 2.0 0.00 0.00 0.00 82 1017.2
20260830045703 54 45 0.0 2.0 0.00 0.00 0.00 82 1017.4
20260830045603 54 45 0.0 2.0 0.00 0.00 0.00 82 1017.4
20260830045503 54 45 0.0 2.0 0.00 0.00 0.00 82 1017.7
20260830045306 53 0 0.0 0.0 0.00 0.00 0.00 82 1017.7
20260830045203 53 0 0.0 0.0 0.00 0.00 0.00 82 1017.8
20260830045103 53 0 0.0 0.0 0.00 0.00 0.00 82 1017.8
20260830045003 53 0 0.0 0.0 0.00 0.00 0.00 82 1017.8
20260830044903 54 157 0.0 2.0 0.00 0.00 0.00 83 1017.8
20260830044803 54 157 0.0 2.0 0.00 0.00 0.00 83 1017.9
20260830044703 54 157 0.0 2.0 0.00 0.00 0.00 83 1018.0
20260830044603 54 157 0.0 2.0 0.00 0.00 0.00 83 1017.8
20260830044503 54 157 0.0 2.0 0.00 0.00 0.00 83 1017.8
20260830044417 54 157 0.0 2.0 0.00 0.00 0.00 83 1017.8
20260830044403 54 157 0.0 2.0 0.00 0.00 0.00 83 1017.9
20260830044303 54 157 0.0 2.0 0.00 0.00 0.00 83 1017.7
20260830044118 54 157 0.0 2.0 0.00 0.00 0.00 82 1017.8
20260830044103 54 157 0.0 2.0 0.00 0.00 0.00 83 1017.9
20260830044017 54 157 0.0 2.0 0.00 0.00 0.00 83 1017.9
20260830044003 54 0 0.0 0.0 0.00 0.00 0.00 82 1017.8
20260830043703 54 154 0.0 2.0 0.00 0.00 0.00 82 1017.8
20260830043603 54 148 0.0 2.0 0.00 0.00 0.00 82 1017.7
20260830043503 54 144 0.0 2.0 0.00 0.00 0.00 82 1017.7
20260830043403 54 138 0.0 2.0 0.00 0.00 0.00 82 1017.6
20260830043303 55 127 1.0 2.0 0.00 0.00 0.00 82 1017.8
20260830043203 55 119 0.0 2.0 0.00 0.00 0.00 82 1017.7
20260830043103 55 110 0.0 2.0 0.00 0.00 0.00 82 1017.7
20260830043017 55 104 1.0 2.0 0.00 0.00 0.00 82 1017.9
20260830043003 55 102 1.0 2.0 0.00 0.00 0.00 82 1017.9
20260830042903 55 82 1.0 2.0 0.00 0.00 0.00 82 1017.7
20260830042703 55 62 1.0 2.0 0.00 0.00 0.00 81 1017.8
20260830042603 55 53 0.0 2.0 0.00 0.00 0.00 81 1017.7
20260830042503 55 37 0.0 2.0 0.00 0.00 0.00 81 1017.8
20260830042403 56 28 1.0 2.0 0.00 0.00 0.00 81 1017.4
20260830042317 55 15 1.0 2.0 0.00 0.00 0.00 80 1017.4
20260830042306 55 16 1.0 2.0 0.00 0.00 0.00 80 1017.4
20260830042203 55 7 1.0 2.0 0.00 0.00 0.00 80 1017.4
20260830042003 55 9 1.0 2.0 0.00 0.00 0.00 79 1017.4
20260830041903 56 14 2.0 2.0 0.00 0.00 0.00 79 1017.4
20260830041803 56 12 2.0 2.0 0.00 0.00 0.00 79 1017.3
20260830041713 55 17 2.0 2.0 0.00 0.00 0.00 78 1017.4
20260830041703 55 18 1.0 2.0 0.00 0.00 0.00 78 1017.4
20260830041617 55 17 1.0 2.0 0.00 0.00 0.00 78 1017.4
20260830041303 55 49 2.0 2.0 0.00 0.00 0.00 76 1017.4
20260830041203 55 45 2.0 2.0 0.00 0.00 0.00 76 1017.4
20260830041118 55 43 2.0 2.0 0.00 0.00 0.00 75 1017.5
20260830041103 55 39 2.0 2.0 0.00 0.00 0.00 75 1017.5
20260830041003 55 21 2.0 2.0 0.00 0.00 0.00 75 1017.4
20260830040803 55 4 1.0 2.0 0.00 0.00 0.00 74 1017.4
20260830040703 55 5 1.0 2.0 0.00 0.00 0.00 74 1017.5
20260830040603 55 8 2.0 2.0 0.00 0.00 0.00 74 1017.6
20260830040503 55 14 1.0 2.0 0.00 0.00 0.00 73 1017.6
20260830040418 55 20 1.0 2.0 0.00 0.00 0.00 73 1017.6
20260830040403 55 22 1.0 2.0 0.00 0.00 0.00 73 1017.5
20260830040317 55 30 1.0 2.0 0.00 0.00 0.00 73 1017.4
20260830040303 55 32 1.0 2.0 0.00 0.00 0.00 73 1017.4
20260830040004 54 49 1.0 2.0 0.00 0.00 0.00 73 1017.7
20260830035903 54 42 1.0 2.0 0.00 0.00 0.00 73 1017.6
20260830035803 54 25 1.0 2.0 0.00 0.00 0.00 74 1017.5
20260830035703 54 4 1.0 2.0 0.00 0.00 0.00 74 1017.5
20260830035603 54 348 0.0 2.0 0.00 0.00 0.00 73 1017.6
20260830035503 54 337 0.0 2.0 0.00 0.00 0.00 73 1017.6
20260830035403 54 337 0.0 2.0 0.00 0.00 0.00 73 1017.6
20260830035203 54 337 1.0 2.0 0.00 0.00 0.00 74 1017.4
20260830035103 54 333 1.0 2.0 0.00 0.00 0.00 74 1017.5
20260830035003 54 324 0.0 2.0 0.00 0.00 0.00 74 1017.6
20260830034903 54 315 0.0 2.0 0.00 0.00 0.00 74 1017.5
20260830034803 54 315 0.0 2.0 0.00 0.00 0.00 74 1017.8
20260830034716 54 314 0.0 2.0 0.00 0.00 0.00 74 1017.4
20260830034703 54 312 0.0 2.0 0.00 0.00 0.00 74 1017.4
20260830034603 54 311 0.0 2.0 0.00 0.00 0.00 74 1017.5
20260830034403 54 307 0.0 2.0 0.00 0.00 0.00 75 1017.7
20260830034303 54 301 0.0 2.0 0.00 0.00 0.00 75 1017.8
20260830034203 54 292 1.0 2.0 0.00 0.00 0.00 75 1017.7
20260830034103 54 0 0.0 0.0 0.00 0.00 0.00 75 1017.7
20260830033803 54 0 0.0 0.0 0.00 0.00 0.00 75 1017.9
20260830033703 54 0 0.0 0.0 0.00 0.00 0.00 75 1017.7
20260830033603 54 292 0.0 2.0 0.00 0.00 0.00 75 1017.6
20260830033503 54 292 0.0 2.0 0.00 0.00 0.00 75 1017.7
20260830033403 54 292 0.0 2.0 0.00 0.00 0.00 75 1017.8
20260830033203 54 292 0.0 2.0 0.00 0.00 0.00 74 1017.8
20260830033103 54 292 1.0 2.0 0.00 0.00 0.00 75 1017.7
20260830033003 54 292 1.0 2.0 0.00 0.00 0.00 75 1017.7
20260830032917 53 292 0.0 2.0 0.00 0.00 0.00 75 1017.9
20260830032803 53 0 0.0 0.0 0.00 0.00 0.00 75 1017.7
20260830032603 54 0 0.0 0.0 0.00 0.00 0.00 75 1017.7
20260830032503 54 0 0.0 0.0 0.00 0.00 0.00 75 1017.7
20260830032403 54 0 0.0 0.0 0.00 0.00 0.00 75 1017.7
20260830032306 54 0 0.0 0.0 0.00 0.00 0.00 75 1017.6
20260830032203 54 0 0.0 0.0 0.00 0.00 0.00 75 1017.8
20260830032118 54 0 0.0 0.0 0.00 0.00 0.00 74 1017.7
20260830032103 54 0 0.0 0.0 0.00 0.00 0.00 74 1017.6
20260830032003 54 0 0.0 0.0 0.00 0.00 0.00 74 1017.9
20260830031803 54 0 0.0 0.0 0.00 0.00 0.00 74 1017.7
20260830031703 54 0 0.0 0.0 0.00 0.00 0.00 74 1017.9
20260830031603 54 0 0.0 0.0 0.00 0.00 0.00 74 1017.8
20260830031403 54 0 0.0 0.0 0.00 0.00 0.00 74 1017.6
20260830031303 54 0 0.0 0.0 0.00 0.00 0.00 74 1017.8
20260830031203 54 0 0.0 0.0 0.00 0.00 0.00 74 1017.8
20260830031103 54 0 0.0 0.0 0.00 0.00 0.00 74 1017.7
20260830031003 54 0 0.0 0.0 0.00 0.00 0.00 74 1017.7
20260830030903 54 292 0.0 2.0 0.00 0.00 0.00 74 1017.8
20260830030803 54 298 0.0 2.0 0.00 0.00 0.00 74 1017.8
20260830030703 54 303 0.0 2.0 0.00 0.00 0.00 74 1017.8
20260830030603 54 307 0.0 2.0 0.00 0.00 0.00 74 1017.9
20260830030503 54 310 0.0 2.0 0.00 0.00 0.00 73 1018.0
20260830030418 54 316 0.0 2.0 0.00 0.00 0.00 73 1018.0
20260830030403 54 316 0.0 2.0 0.00 0.00 0.00 73 1017.9
20260830030303 54 325 0.0 2.0 0.00 0.00 0.00 73 1018.0
20260830030103 54 323 0.0 2.0 0.00 0.00 0.00 73 1018.0
20260830030003 54 322 1.0 2.0 0.00 0.00 0.00 73 1017.9
20260830025903 54 317 1.0 2.0 0.00 0.00 0.00 73 1018.0
20260830025803 54 315 0.0 2.0 0.00 0.00 0.00 73 1017.9
20260830025718 54 315 1.0 2.0 0.00 0.00 0.00 73 1017.9
20260830025703 54 314 1.0 2.0 0.00 0.00 0.00 73 1017.8
20260830025617 54 311 1.0 2.0 0.00 0.00 0.00 73 1017.8
20260830025603 54 311 0.0 2.0 0.00 0.00 0.00 73 1018.1
20260830025306 54 310 0.0 2.0 0.00 0.00 0.00 73 1018.3
20260830025203 54 309 0.0 2.0 0.00 0.00 0.00 73 1018.2
20260830025103 54 315 0.0 2.0 0.00 0.00 0.00 73 1018.1
20260830025003 54 315 0.0 2.0 0.00 0.00 0.00 73 1018.1
20260830024903 54 315 1.0 2.0 0.00 0.00 0.00 73 1018.2
20260830024803 54 315 1.0 2.0 0.00 0.00 0.00 73 1018.1
20260830024703 54 0 0.0 0.0 0.00 0.00 0.00 72 1018.2
20260830024603 54 0 0.0 0.0 0.00 0.00 0.00 72 1018.1
20260830024503 54 0 0.0 0.0 0.00 0.00 0.00 72 1018.2
20260830024418 54 0 0.0 0.0 0.00 0.00 0.00 72 1018.2
20260830024403 55 0 0.0 0.0 0.00 0.00 0.00 72 1018.3
20260830024303 55 0 0.0 0.0 0.00 0.00 0.00 72 1018.2
20260830024103 55 225 0.0 2.0 0.00 0.00 0.00 72 1018.2
20260830024003 55 225 0.0 2.0 0.00 0.00 0.00 72 1018.1
20260830023903 55 225 0.0 2.0 0.00 0.00 0.00 72 1018.1
20260830023803 55 225 0.0 2.0 0.00 0.00 0.00 72 1017.9
20260830023703 55 225 0.0 2.0 0.00 0.00 0.00 71 1018.1
20260830023603 55 225 0.0 2.0 0.00 0.00 0.00 71 1017.8
20260830023503 55 225 0.0 2.0 0.00 0.00 0.00 71 1018.1
20260830023403 55 230 0.0 2.0 0.00 0.00 0.00 71 1017.9
20260830023303 55 236 1.0 2.0 0.00 0.00 0.00 71 1018.1
20260830023203 55 243 1.0 2.0 0.00 0.00 0.00 71 1018.2
20260830023103 55 246 1.0 2.0 0.00 0.00 0.00 71 1017.8
20260830023003 55 253 0.0 2.0 0.00 0.00 0.00 71 1017.8
20260830022903 55 258 1.0 2.0 0.00 0.00 0.00 71 1017.8
20260830022803 55 258 1.0 2.0 0.00 0.00 0.00 71 1018.0
20260830022703 55 254 1.0 2.0 0.00 0.00 0.00 71 1018.1
20260830022603 56 254 1.0 2.0 0.00 0.00 0.00 71 1018.2
20260830022503 56 250 0.0 2.0 0.00 0.00 0.00 71 1017.7
20260830022403 56 248 0.0 2.0 0.00 0.00 0.00 70 1017.9
20260830022306 56 253 2.0 2.0 0.00 0.00 0.00 70 1017.7
20260830022208 56 259 1.0 2.0 0.00 0.00 0.00 70 1017.9
20260830022103 56 265 0.0 2.0 0.00 0.00 0.00 70 1017.7
20260830022003 56 270 0.0 2.0 0.00 0.00 0.00 70 1017.7
20260830021903 56 269 0.0 2.0 0.00 0.00 0.00 70 1017.8
20260830021803 56 258 0.0 2.0 0.00 0.00 0.00 70 1017.5
20260830021703 56 244 0.0 2.0 0.00 0.00 0.00 70 1017.8
20260830021618 56 242 0.0 2.0 0.00 0.00 0.00 70 1017.8
20260830021603 56 242 1.0 2.0 0.00 0.00 0.00 69 1017.6
20260830021517 56 238 2.0 2.0 0.00 0.00 0.00 69 1017.6
20260830021503 56 235 2.0 2.0 0.00 0.00 0.00 69 1017.6
20260830021203 56 238 1.0 2.0 0.00 0.00 0.00 69 1017.5
20260830021103 57 237 1.0 2.0 0.00 0.00 0.00 69 1017.6
20260830021018 57 236 1.0 2.0 0.00 0.00 0.00 69 1017.7
20260830021003 57 237 1.0 2.0 0.00 0.00 0.00 69 1017.7
20260830020903 57 235 0.0 2.0 0.00 0.00 0.00 69 1017.6
20260830020703 57 228 0.0 2.0 0.00 0.00 0.00 69 1017.8
20260830020603 57 229 0.0 2.0 0.00 0.00 0.00 69 1017.9
20260830020503 57 225 2.0 2.0 0.00 0.00 0.00 68 1017.5
20260830020403 57 225 2.0 2.0 0.00 0.00 0.00 68 1017.7
20260830020303 57 225 1.0 2.0 0.00 0.00 0.00 68 1017.7
20260830020203 57 242 1.0 2.0 0.00 0.00 0.00 68 1017.6
20260830020103 57 247 0.0 2.0 0.00 0.00 0.00 68 1017.7
20260830020003 57 245 0.0 2.0 0.00 0.00 0.00 68 1017.6
20260830015903 57 242 0.0 2.0 0.00 0.00 0.00 68 1017.6
20260830015803 57 240 0.0 2.0 0.00 0.00 0.00 68 1017.6
20260830015618 57 233 0.0 2.0 0.00 0.00 0.00 67 1017.5
20260830015603 57 232 2.0 2.0 0.00 0.00 0.00 67 1017.5
20260830015503 57 228 2.0 2.0 0.00 0.00 0.00 67 1017.5
20260830015306 58 225 1.0 2.0 0.00 0.00 0.00 67 1017.8
20260830015203 57 225 0.0 2.0 0.00 0.00 0.00 67 1017.7
20260830015103 58 225 1.0 2.0 0.00 0.00 0.00 67 1017.8
20260830015003 57 225 1.0 2.0 0.00 0.00 0.00 67 1017.6
20260830014903 57 225 0.0 2.0 0.00 0.00 0.00 68 1017.6
20260830014817 57 225 0.0 2.0 0.00 0.00 0.00 68 1017.6
20260830014803 57 225 0.0 2.0 0.00 0.00 0.00 68 1017.4
20260830014703 57 225 0.0 2.0 0.00 0.00 0.00 68 1017.6
20260830014508 57 0 0.0 0.0 0.00 0.00 0.00 67 1017.5
20260830014403 57 0 0.0 0.0 0.00 0.00 0.00 67 1017.4
20260830014318 57 0 0.0 0.0 0.00 0.00 0.00 67 1017.6
20260830014203 57 0 0.0 0.0 0.00 0.00 0.00 67 1017.5
20260830014003 57 0 0.0 0.0 0.00 0.00 0.00 67 1017.3
20260830013903 57 90 0.0 2.0 0.00 0.00 0.00 67 1017.3
20260830013803 57 90 0.0 2.0 0.00 0.00 0.00 67 1017.3
20260830013703 57 78 0.0 2.0 0.00 0.00 0.00 67 1017.5
20260830013603 58 78 0.0 2.0 0.00 0.00 0.00 67 1017.2
20260830013503 58 78 0.0 2.0 0.00 0.00 0.00 67 1017.2
20260830013403 58 73 1.0 2.0 0.00 0.00 0.00 67 1017.2
20260830013303 58 62 0.0 2.0 0.00 0.00 0.00 68 1017.2
20260830013203 58 45 0.0 2.0 0.00 0.00 0.00 68 1017.3
20260830013103 58 45 0.0 2.0 0.00 0.00 0.00 68 1017.4
20260830013018 58 54 0.0 2.0 0.00 0.00 0.00 68 1017.2
20260830013003 58 56 0.0 2.0 0.00 0.00 0.00 68 1017.2
20260830012903 58 60 0.0 2.0 0.00 0.00 0.00 67 1017.1
20260830012817 58 60 0.0 2.0 0.00 0.00 0.00 67 1017.1
20260830012703 58 67 0.0 2.0 0.00 0.00 0.00 67 1017.1
20260830012503 58 67 0.0 2.0 0.00 0.00 0.00 67 1016.9
20260830012403 58 67 0.0 2.0 0.00 0.00 0.00 67 1017.1
20260830012306 58 67 0.0 2.0 0.00 0.00 0.00 67 1017.2
20260830012203 58 67 0.0 2.0 0.00 0.00 0.00 67 1016.9
20260830012103 58 67 0.0 2.0 0.00 0.00 0.00 66 1017.0
20260830011903 58 70 0.0 2.0 0.00 0.00 0.00 66 1017.0
20260830011803 58 76 0.0 2.0 0.00 0.00 0.00 65 1016.9
20260830011703 58 76 1.0 2.0 0.00 0.00 0.00 65 1017.2
20260830011603 58 76 0.0 2.0 0.00 0.00 0.00 65 1016.8
20260830011503 58 76 0.0 2.0 0.00 0.00 0.00 65 1016.9
20260830011403 58 70 2.0 2.0 0.00 0.00 0.00 65 1017.1
20260830011303 59 58 1.0 2.0 0.00 0.00 0.00 65 1017.3
20260830011203 59 51 0.0 2.0 0.00 0.00 0.00 65 1017.1
20260830011103 59 46 1.0 2.0 0.00 0.00 0.00 65 1017.1
20260830011018 58 42 1.0 2.0 0.00 0.00 0.00 65 1017.2
20260830011003 58 41 1.0 2.0 0.00 0.00 0.00 65 1017.2
20260830010903 58 45 1.0 2.0 0.00 0.00 0.00 65 1017.3
20260830010717 58 56 2.0 2.0 0.00 0.00 0.00 66 1017.2
20260830010703 58 57 2.0 2.0 0.00 0.00 0.00 66 1017.2
20260830010603 58 62 1.0 2.0 0.00 0.00 0.00 66 1017.1
20260830010403 59 62 0.0 2.0 0.00 0.00 0.00 65 1017.4
20260830010303 59 59 0.0 2.0 0.00 0.00 0.00 65 1017.1
20260830010203 59 57 1.0 2.0 0.00 0.00 0.00 65 1017.0
20260830010103 59 52 1.0 2.0 0.00 0.00 0.00 65 1016.9